Observation data for Coyanosa on 12/09/2018      Previous  Date  Next       Current Mesonet Observations  Soil Data  Daily Summary Page  Observations in Plain Language
KCO1 090600Z 16005KT 01/00 A3032 RMK A01 T00100003  RH  095%=      5-min Rain = 0
KCO1 090601Z 16005KT 01/00 A3032 RMK A01 T00100003  RH  095%=      5-min Rain = 0
KCO1 090602Z 16006KT 01/00 A3032 RMK A01 T00090002  RH  095%=      5-min Rain = 0
KCO1 090603Z 16006KT 01/00 A3032 RMK A01 T00090003  RH  095%=      5-min Rain = 0
KCO1 090604Z 16006KT 01/00 A3032 RMK A01 T00090002  RH  095%=      5-min Rain = 0
KCO1 090605Z 16005KT 01/00 A3032 RMK A01 T00090002  RH  095%=      5-min Rain = 0
KCO1 090606Z 16005KT 01/00 A3032 RMK A01 T00090002  RH  095%=      5-min Rain = 0
KCO1 090607Z 16005KT 01/00 A3032 RMK A01 T00090001  RH  095%=      5-min Rain = 0
KCO1 090608Z 16005KT 01/00 A3032 RMK A01 T00090002  RH  095%=      5-min Rain = 0
KCO1 090609Z 16005KT 01/00 A3032 RMK A01 T00080001  RH  095%=      5-min Rain = 0
KCO1 090610Z 16005KT 01/00 A3032 RMK A01 T00080001  RH  095%=      5-min Rain = 0
KCO1 090611Z 16006KT 01/00 A3032 RMK A01 T00090001  RH  095%=      5-min Rain = 0
KCO1 090612Z 16006KT 01/00 A3032 RMK A01 T00080001  RH  095%=      5-min Rain = 0
KCO1 090613Z 16005KT 01/00 A3032 RMK A01 T00080001  RH  095%=      5-min Rain = 0
KCO1 090614Z 16005KT 01/00 A3032 RMK A01 T00080001  RH  095%=      5-min Rain = 0
KCO1 090615Z 16005KT 01/00 A3032 RMK A01 T00080002  RH  095%=      5-min Rain = 0
KCO1 090616Z 16005KT 01/00 A3032 RMK A01 T00080002  RH  095%=      5-min Rain = 0
KCO1 090617Z 16005KT 01/00 A3032 RMK A01 T00090002  RH  095%=      5-min Rain = 0
KCO1 090618Z 15005KT 01/00 A3032 RMK A01 T00090002  RH  095%=      5-min Rain = 0
KCO1 090619Z 15005KT 01/00 A3032 RMK A01 T00090002  RH  095%=      5-min Rain = 0
KCO1 090620Z 15005KT 01/00 A3032 RMK A01 T00090002  RH  095%=      5-min Rain = 0
KCO1 090621Z 16005KT 01/00 A3032 RMK A01 T00080002  RH  095%=      5-min Rain = 0
KCO1 090622Z 15005KT 01/00 A3032 RMK A01 T00090002  RH  095%=      5-min Rain = 0
KCO1 090623Z 15005KT 01/00 A3032 RMK A01 T00080001  RH  095%=      5-min Rain = 0
KCO1 090624Z 15005KT 01/00 A3032 RMK A01 T00080001  RH  095%=      5-min Rain = 0
KCO1 090625Z 15005KT 01/00 A3032 RMK A01 T00080001  RH  095%=      5-min Rain = 0
KCO1 090626Z 16005KT 01/00 A3032 RMK A01 T00080001  RH  095%=      5-min Rain = 0
KCO1 090627Z 16005KT 01/00 A3032 RMK A01 T00080001  RH  095%=      5-min Rain = 0
KCO1 090628Z 16005KT 01/00 A3032 RMK A01 T00080002  RH  095%=      5-min Rain = 0
KCO1 090629Z 16005KT 01/00 A3032 RMK A01 T00080002  RH  095%=      5-min Rain = 0
KCO1 090630Z 16005KT 01/00 A3032 RMK A01 T00080001  RH  095%=      5-min Rain = 0
KCO1 090631Z 16006KT 01/00 A3032 RMK A01 T00080001  RH  095%=      5-min Rain = 0
KCO1 090632Z 16005KT 01/00 A3031 RMK A01 T00080001  RH  095%=      5-min Rain = 0
KCO1 090633Z 15005KT 01/00 A3031 RMK A01 T00080001  RH  095%=      5-min Rain = 0
KCO1 090634Z 15005KT 01/00 A3031 RMK A01 T00080001  RH  095%=      5-min Rain = 0
KCO1 090635Z 15005KT 01/00 A3031 RMK A01 T00070000  RH  095%=      5-min Rain = 0
KCO1 090636Z 15005KT 01/00 A3031 RMK A01 T00070000  RH  095%=      5-min Rain = 0
KCO1 090637Z 15005KT 01/00 A3031 RMK A01 T000700-0  RH  095%=      5-min Rain = 0
KCO1 090638Z 15005KT 01/00 A3031 RMK A01 T000700-0  RH  095%=      5-min Rain = 0
KCO1 090639Z 15005KT 01/00 A3031 RMK A01 T000600-0  RH  095%=      5-min Rain = 0
KCO1 090640Z 15006KT 01/00 A3031 RMK A01 T000600-0  RH  095%=      5-min Rain = 0
KCO1 090641Z 15006KT 01/00 A3031 RMK A01 T000600-0  RH  095%=      5-min Rain = 0
KCO1 090642Z 15005KT 01/M00 A3031 RMK A01 T00061001  RH  095%=      5-min Rain = 0
KCO1 090643Z 15006KT 01/00 A3031 RMK A01 T000600-0  RH  095%=      5-min Rain = 0
KCO1 090644Z 15006KT 01/M00 A3031 RMK A01 T00061001  RH  095%=      5-min Rain = 0
KCO1 090645Z 15006KT 01/M00 A3031 RMK A01 T00061001  RH  096%=      5-min Rain = 0
KCO1 090646Z 15006KT 01/00 A3031 RMK A01 T000600-0  RH  096%=      5-min Rain = 0
KCO1 090647Z 15005KT 01/00 A3031 RMK A01 T00060000  RH  096%=      5-min Rain = 0
KCO1 090648Z 15005KT 01/00 A3031 RMK A01 T00060000  RH  096%=      5-min Rain = 0
KCO1 090649Z 14005KT 01/00 A3031 RMK A01 T00060000  RH  096%=      5-min Rain = 0
KCO1 090650Z 14005KT 01/00 A3031 RMK A01 T00060000  RH  096%=      5-min Rain = 0
KCO1 090651Z 14005KT 01/00 A3031 RMK A01 T00060000  RH  096%=      5-min Rain = 0
KCO1 090652Z 14005KT 01/00 A3031 RMK A01 T00060000  RH  096%=      5-min Rain = 0
KCO1 090653Z 14005KT 01/00 A303 RMK A01 T000600-0  RH  096%=      5-min Rain = 0
KCO1 090654Z 15005KT 01/00 A303 RMK A01 T00060000  RH  096%=      5-min Rain = 0
KCO1 090655Z 15005KT 01/00 A303 RMK A01 T000600-0  RH  096%=      5-min Rain = 0
KCO1 090656Z 15005KT 01/M00 A303 RMK A01 T00061001  RH  096%=      5-min Rain = 0
KCO1 090657Z 15005KT 01/M00 A303 RMK A01 T00051001  RH  096%=      5-min Rain = 0
KCO1 090658Z 15006KT 01/M00 A303 RMK A01 T00051001  RH  096%=      5-min Rain = 0
KCO1 090659Z 15006KT 01/M00 A303 RMK A01 T00051001  RH  096%=      5-min Rain = 0
KCO1 090700Z 15006KT 01/M00 A303 RMK A01 T00051001  RH  096%=      5-min Rain = 0
KCO1 090701Z 15006KT 01/00 A303 RMK A01 T000600-0  RH  096%=      5-min Rain = 0
KCO1 090702Z 15006KT 01/00 A303 RMK A01 T00060000  RH  096%=      5-min Rain = 0
KCO1 090703Z 15006KT 01/00 A303 RMK A01 T00060001  RH  096%=      5-min Rain = 0
KCO1 090704Z 15006KT 01/00 A303 RMK A01 T00070001  RH  096%=      5-min Rain = 0
KCO1 090705Z 14006KT 01/00 A303 RMK A01 T00070001  RH  096%=      5-min Rain = 0
KCO1 090706Z 14006KT 01/00 A303 RMK A01 T00080002  RH  096%=      5-min Rain = 0
KCO1 090707Z 14006KT 01/00 A303 RMK A01 T00080002  RH  096%=      5-min Rain = 0
KCO1 090708Z 14005KT 01/00 A303 RMK A01 T00080003  RH  096%=      5-min Rain = 0
KCO1 090709Z 14005KT 01/00 A303 RMK A01 T00080003  RH  096%=      5-min Rain = 0
KCO1 090710Z 13005KT 01/00 A303 RMK A01 T00090003  RH  096%=      5-min Rain = 0
KCO1 090711Z 13005KT 01/00 A303 RMK A01 T00090003  RH  096%=      5-min Rain = 0
KCO1 090712Z 13005KT 01/00 A303 RMK A01 T00090002  RH  096%=      5-min Rain = 0
KCO1 090713Z 13005KT 01/00 A303 RMK A01 T00080002  RH  096%=      5-min Rain = 0
KCO1 090714Z 13005KT 01/00 A303 RMK A01 T00080002  RH  096%=      5-min Rain = 0
KCO1 090715Z 13005KT 01/00 A303 RMK A01 T00080001  RH  095%=      5-min Rain = 0
KCO1 090716Z 13005KT 01/00 A303 RMK A01 T00070000  RH  095%=      5-min Rain = 0
KCO1 090717Z 13005KT 01/M00 A303 RMK A01 T00061001  RH  095%=      5-min Rain = 0
KCO1 090718Z 13005KT 01/M00 A303 RMK A01 T00061001  RH  095%=      5-min Rain = 0
KCO1 090719Z 13005KT 01/M00 A303 RMK A01 T00051002  RH  095%=      5-min Rain = 0
KCO1 090720Z 13006KT 00/M00 A303 RMK A01 T00041003  RH  095%=      5-min Rain = 0
KCO1 090721Z 13006KT 00/M00 A303 RMK A01 T00041004  RH  095%=      5-min Rain = 0
KCO1 090722Z 13006KT 00/M00 A303 RMK A01 T00031004  RH  095%=      5-min Rain = 0
KCO1 090723Z 13006KT 00/M00 A303 RMK A01 T00031004  RH  095%=      5-min Rain = 0
KCO1 090724Z 13006KT 00/M01 A303 RMK A01 T00031005  RH  095%=      5-min Rain = 0
KCO1 090725Z 13006KT 00/M01 A303 RMK A01 T00021005  RH  095%=      5-min Rain = 0
KCO1 090726Z 13006KT 00/M01 A303 RMK A01 T00021005  RH  095%=      5-min Rain = 0
KCO1 090727Z 13006KT 00/M01 A303 RMK A01 T00021005  RH  095%=      5-min Rain = 0
KCO1 090728Z 13006KT 00/M01 A303 RMK A01 T00021005  RH  095%=      5-min Rain = 0
KCO1 090729Z 12006KT 00/M01 A303 RMK A01 T00011006  RH  095%=      5-min Rain = 0
KCO1 090730Z 12006KT 00/M01 A303 RMK A01 T00011006  RH  095%=      5-min Rain = 0
KCO1 090731Z 12006KT 00/M01 A303 RMK A01 T00011006  RH  095%=      5-min Rain = 0
KCO1 090732Z 12005KT 00/01 A303 RMK A01 T000000-7  RH  095%=      5-min Rain = 0
KCO1 090733Z 12005KT 00/01 A303 RMK A01 T00-000-7  RH  095%=      5-min Rain = 0
KCO1 090734Z 12005KT 00/01 A303 RMK A01 T00-000-7  RH  095%=      5-min Rain = 0
KCO1 090735Z 12005KT M00/M01 A303 RMK A01 T10011007  RH  095%=      5-min Rain = 0
KCO1 090736Z 12004KT M00/M01 A303 RMK A01 T10011007  RH  095%=      5-min Rain = 0
KCO1 090737Z 12004KT M00/M01 A303 RMK A01 T10011008  RH  095%=      5-min Rain = 0
KCO1 090738Z 12004KT M00/M01 A303 RMK A01 T10011008  RH  095%=      5-min Rain = 0
KCO1 090739Z 12004KT M00/M01 A303 RMK A01 T10011008  RH  095%=      5-min Rain = 0
KCO1 090740Z 12004KT M00/M01 A303 RMK A01 T10021008  RH  095%=      5-min Rain = 0
KCO1 090741Z 12005KT M00/M01 A303 RMK A01 T10021009  RH  095%=      5-min Rain = 0
KCO1 090742Z 12005KT M00/M01 A303 RMK A01 T10021009  RH  095%=      5-min Rain = 0
KCO1 090743Z 12005KT M00/M01 A303 RMK A01 T10031010  RH  095%=      5-min Rain = 0
KCO1 090744Z 12004KT M00/M01 A303 RMK A01 T10041010  RH  095%=      5-min Rain = 0
KCO1 090745Z 13004KT M00/M01 A303 RMK A01 T10041010  RH  095%=      5-min Rain = 0
KCO1 090746Z 13004KT M00/M01 A303 RMK A01 T10041011  RH  095%=      5-min Rain = 0
KCO1 090747Z 13005KT M01/M01 A303 RMK A01 T10051011  RH  095%=      5-min Rain = 0
KCO1 090748Z 14005KT M01/M01 A303 RMK A01 T10051011  RH  095%=      5-min Rain = 0
KCO1 090749Z 14005KT M01/M01 A303 RMK A01 T10051012  RH  095%=      5-min Rain = 0
KCO1 090750Z 14005KT M01/M01 A303 RMK A01 T10051012  RH  095%=      5-min Rain = 0
KCO1 090751Z 14005KT M01/M01 A303 RMK A01 T10051011  RH  096%=      5-min Rain = 0
KCO1 090752Z 13005KT M01/M01 A303 RMK A01 T10051011  RH  096%=      5-min Rain = 0
KCO1 090753Z 14005KT M01/M01 A303 RMK A01 T10051011  RH  096%=      5-min Rain = 0
KCO1 090754Z 14005KT M01/M01 A303 RMK A01 T10051011  RH  096%=      5-min Rain = 0
KCO1 090755Z 14005KT M01/M01 A303 RMK A01 T10051011  RH  096%=      5-min Rain = 0
KCO1 090756Z 15005KT M01/M01 A303 RMK A01 T10051010  RH  096%=      5-min Rain = 0
KCO1 090757Z 15005KT M00/M01 A303 RMK A01 T10041010  RH  096%=      5-min Rain = 0
KCO1 090758Z 15005KT M00/M01 A303 RMK A01 T10041010  RH  096%=      5-min Rain = 0
KCO1 090759Z 15005KT M00/M01 A303 RMK A01 T10041010  RH  096%=      5-min Rain = 0
KCO1 090800Z 16005KT M00/M01 A303 RMK A01 T10041009  RH  096%=      5-min Rain = 0
KCO1 090801Z 16005KT M00/M01 A303 RMK A01 T10041009  RH  096%=      5-min Rain = 0
KCO1 090802Z 15005KT M00/M01 A303 RMK A01 T10031009  RH  096%=      5-min Rain = 0
KCO1 090803Z 15006KT M00/M01 A303 RMK A01 T10031008  RH  096%=      5-min Rain = 0
KCO1 090804Z 16005KT M00/M01 A303 RMK A01 T10031007  RH  097%=      5-min Rain = 0
KCO1 090805Z 16005KT M00/M01 A303 RMK A01 T10021007  RH  097%=      5-min Rain = 0
KCO1 090806Z 16005KT M00/M01 A303 RMK A01 T10021007  RH  097%=      5-min Rain = 0
KCO1 090807Z 16006KT M00/M01 A303 RMK A01 T10021006  RH  097%=      5-min Rain = 0
KCO1 090808Z 16006KT M00/M01 A303 RMK A01 T10021006  RH  097%=      5-min Rain = 0
KCO1 090809Z 16006KT M00/M01 A3029 RMK A01 T10011006  RH  097%=      5-min Rain = 0
KCO1 090810Z 16007KT M00/M01 A3029 RMK A01 T10011006  RH  097%=      5-min Rain = 0
KCO1 090811Z 16007KT M00/M01 A3029 RMK A01 T10011005  RH  097%=      5-min Rain = 0
KCO1 090812Z 16007KT M00/M01 A3029 RMK A01 T10011006  RH  097%=      5-min Rain = 0
KCO1 090813Z 16007KT 00/01 A3029 RMK A01 T00-000-5  RH  097%=      5-min Rain = 0
KCO1 090814Z 16006KT M00/M01 A3029 RMK A01 T10011005  RH  097%=      5-min Rain = 0
KCO1 090815Z 16006KT 00/01 A3029 RMK A01 T00-000-5  RH  097%=      5-min Rain = 0
KCO1 090816Z 16006KT 00/01 A3029 RMK A01 T00-000-5  RH  097%=      5-min Rain = 0
KCO1 090817Z 16006KT 00/01 A3029 RMK A01 T00-000-5  RH  097%=      5-min Rain = 0
KCO1 090818Z 16006KT 00/01 A3029 RMK A01 T00-000-5  RH  097%=      5-min Rain = 0
KCO1 090819Z 15005KT 00/01 A3029 RMK A01 T00-000-5  RH  097%=      5-min Rain = 0
KCO1 090820Z 15004KT 00/01 A3029 RMK A01 T00-000-5  RH  097%=      5-min Rain = 0
KCO1 090821Z 15004KT 00/01 A3029 RMK A01 T00-000-5  RH  097%=      5-min Rain = 0
KCO1 090822Z 15004KT 00/00 A3029 RMK A01 T000000-4  RH  097%=      5-min Rain = 0
KCO1 090823Z 15003KT 00/00 A303 RMK A01 T000000-4  RH  097%=      5-min Rain = 0
KCO1 090824Z 15004KT 00/00 A3029 RMK A01 T000000-4  RH  097%=      5-min Rain = 0
KCO1 090825Z 15004KT 00/00 A3029 RMK A01 T000000-4  RH  097%=      5-min Rain = 0
KCO1 090826Z 14004KT 00/00 A3029 RMK A01 T000000-4  RH  097%=      5-min Rain = 0
KCO1 090827Z 14004KT 00/00 A3029 RMK A01 T000000-4  RH  097%=      5-min Rain = 0
KCO1 090828Z 14004KT 00/00 A303 RMK A01 T000000-4  RH  097%=      5-min Rain = 0
KCO1 090829Z 15004KT 00/M00 A3029 RMK A01 T00011004  RH  097%=      5-min Rain = 0
KCO1 090830Z 15004KT 00/M00 A3029 RMK A01 T00011004  RH  097%=      5-min Rain = 0
KCO1 090831Z 15004KT 00/M00 A3029 RMK A01 T00011004  RH  097%=      5-min Rain = 0
KCO1 090832Z 15004KT 00/M00 A303 RMK A01 T00011004  RH  097%=      5-min Rain = 0
KCO1 090833Z 15004KT 00/M00 A303 RMK A01 T00011004  RH  097%=      5-min Rain = 0
KCO1 090834Z 15004KT 00/M00 A3029 RMK A01 T00011004  RH  097%=      5-min Rain = 0
KCO1 090835Z 15004KT 00/M00 A3029 RMK A01 T00011004  RH  097%=      5-min Rain = 0
KCO1 090836Z 15005KT 00/M00 A3029 RMK A01 T00011004  RH  097%=      5-min Rain = 0
KCO1 090837Z 15005KT 00/M00 A3029 RMK A01 T00011004  RH  097%=      5-min Rain = 0
KCO1 090838Z 15004KT 00/M00 A3029 RMK A01 T00011004  RH  097%=      5-min Rain = 0
KCO1 090839Z 16004KT 00/01 A3029 RMK A01 T000000-5  RH  097%=      5-min Rain = 0
KCO1 090840Z 16004KT 00/01 A303 RMK A01 T00-000-5  RH  097%=      5-min Rain = 0
KCO1 090841Z 16005KT 00/01 A303 RMK A01 T00-000-5  RH  097%=      5-min Rain = 0
KCO1 090842Z 16005KT 00/01 A303 RMK A01 T00-000-5  RH  097%=      5-min Rain = 0
KCO1 090843Z 16005KT 00/01 A303 RMK A01 T00-000-5  RH  097%=      5-min Rain = 0
KCO1 090844Z 16005KT 00/01 A303 RMK A01 T00-000-5  RH  097%=      5-min Rain = 0
KCO1 090845Z 16006KT 00/01 A303 RMK A01 T000000-5  RH  097%=      5-min Rain = 0
KCO1 090846Z 16006KT 00/01 A303 RMK A01 T00-000-5  RH  097%=      5-min Rain = 0
KCO1 090847Z 16006KT 00/01 A3029 RMK A01 T00-000-5  RH  096%=      5-min Rain = 0
KCO1 090848Z 15006KT 00/01 A3029 RMK A01 T00-000-5  RH  096%=      5-min Rain = 0
KCO1 090849Z 15006KT 00/01 A3029 RMK A01 T00-000-5  RH  097%=      5-min Rain = 0
KCO1 090850Z 15005KT 00/01 A3029 RMK A01 T00-000-5  RH  097%=      5-min Rain = 0
KCO1 090851Z 15005KT 00/01 A3029 RMK A01 T00-000-5  RH  097%=      5-min Rain = 0
KCO1 090852Z 15005KT 00/01 A3029 RMK A01 T00-000-5  RH  097%=      5-min Rain = 0
KCO1 090853Z 15005KT 00/01 A3029 RMK A01 T00-000-5  RH  097%=      5-min Rain = 0
KCO1 090854Z 15005KT 00/01 A3029 RMK A01 T00-000-5  RH  097%=      5-min Rain = 0
KCO1 090855Z 15005KT 00/01 A3029 RMK A01 T000000-5  RH  097%=      5-min Rain = 0
KCO1 090856Z 15005KT 00/01 A3029 RMK A01 T000000-5  RH  097%=      5-min Rain = 0
KCO1 090857Z 15005KT 00/01 A3029 RMK A01 T000000-5  RH  097%=      5-min Rain = 0
KCO1 090858Z 15005KT 00/M00 A3029 RMK A01 T00011004  RH  097%=      5-min Rain = 0
KCO1 090859Z 15005KT 00/M00 A3029 RMK A01 T00011004  RH  097%=      5-min Rain = 0
KCO1 090900Z 15005KT 00/M00 A3029 RMK A01 T00011004  RH  096%=      5-min Rain = 0
KCO1 090901Z 15005KT 00/M00 A3029 RMK A01 T00011004  RH  096%=      5-min Rain = 0
KCO1 090902Z 15005KT 00/M00 A3029 RMK A01 T00011004  RH  096%=      5-min Rain = 0
KCO1 090903Z 15005KT 00/01 A3029 RMK A01 T000000-5  RH  096%=      5-min Rain = 0
KCO1 090904Z 15005KT 00/01 A3029 RMK A01 T000000-5  RH  096%=      5-min Rain = 0
KCO1 090905Z 15004KT 00/01 A3029 RMK A01 T00-000-5  RH  096%=      5-min Rain = 0
KCO1 090906Z 15004KT 00/01 A3029 RMK A01 T00-000-6  RH  096%=      5-min Rain = 0
KCO1 090907Z 15004KT 00/01 A3029 RMK A01 T00-000-6  RH  096%=      5-min Rain = 0
KCO1 090908Z 15004KT 00/01 A3029 RMK A01 T000000-5  RH  096%=      5-min Rain = 0
KCO1 090909Z 15004KT M00/M01 A3029 RMK A01 T10011006  RH  096%=      5-min Rain = 0
KCO1 090910Z 15004KT M00/M01 A3029 RMK A01 T10011006  RH  096%=      5-min Rain = 0
KCO1 090911Z 16004KT M00/M01 A3029 RMK A01 T10011006  RH  096%=      5-min Rain = 0
KCO1 090912Z 16005KT M00/M01 A3029 RMK A01 T10011006  RH  096%=      5-min Rain = 0
KCO1 090913Z 16005KT M00/M01 A3029 RMK A01 T10011007  RH  096%=      5-min Rain = 0
KCO1 090914Z 16005KT M00/M01 A3029 RMK A01 T10021007  RH  096%=      5-min Rain = 0
KCO1 090915Z 15005KT M00/M01 A3029 RMK A01 T10021007  RH  096%=      5-min Rain = 0
KCO1 090916Z 16005KT M00/M01 A3029 RMK A01 T10021008  RH  096%=      5-min Rain = 0
KCO1 090917Z 16005KT M00/M01 A3029 RMK A01 T10021008  RH  096%=      5-min Rain = 0
KCO1 090918Z 16005KT M00/M01 A3029 RMK A01 T10031008  RH  096%=      5-min Rain = 0
KCO1 090919Z 16005KT M00/M01 A3029 RMK A01 T10031008  RH  096%=      5-min Rain = 0
KCO1 090920Z 16005KT M00/M01 A3029 RMK A01 T10031008  RH  096%=      5-min Rain = 0
KCO1 090921Z 16006KT M00/M01 A3029 RMK A01 T10031008  RH  096%=      5-min Rain = 0
KCO1 090922Z 16006KT M00/M01 A3029 RMK A01 T10031008  RH  096%=      5-min Rain = 0
KCO1 090923Z 16006KT M00/M01 A3029 RMK A01 T10031009  RH  096%=      5-min Rain = 0
KCO1 090924Z 16006KT M00/M01 A3029 RMK A01 T10031009  RH  096%=      5-min Rain = 0
KCO1 090925Z 16006KT M00/M01 A3029 RMK A01 T10031009  RH  096%=      5-min Rain = 0
KCO1 090926Z 16006KT M00/M01 A3029 RMK A01 T10031009  RH  096%=      5-min Rain = 0
KCO1 090927Z 16006KT M00/M01 A3029 RMK A01 T10031008  RH  096%=      5-min Rain = 0
KCO1 090928Z 16006KT M00/M01 A3029 RMK A01 T10031009  RH  096%=      5-min Rain = 0
KCO1 090929Z 16006KT M00/M01 A3029 RMK A01 T10031008  RH  096%=      5-min Rain = 0
KCO1 090930Z 16006KT M00/M01 A3029 RMK A01 T10031008  RH  096%=      5-min Rain = 0
KCO1 090931Z 16005KT M00/M01 A3029 RMK A01 T10021008  RH  096%=      5-min Rain = 0
KCO1 090932Z 16005KT M00/M01 A3029 RMK A01 T10021008  RH  096%=      5-min Rain = 0
KCO1 090933Z 16006KT M00/M01 A3029 RMK A01 T10021008  RH  096%=      5-min Rain = 0
KCO1 090934Z 16006KT M00/M01 A3029 RMK A01 T10031008  RH  096%=      5-min Rain = 0
KCO1 090935Z 16005KT M00/M01 A3029 RMK A01 T10021008  RH  096%=      5-min Rain = 0
KCO1 090936Z 16005KT M00/M01 A3029 RMK A01 T10031008  RH  096%=      5-min Rain = 0
KCO1 090937Z 16005KT M00/M01 A3029 RMK A01 T10021008  RH  096%=      5-min Rain = 0
KCO1 090938Z 16005KT M00/M01 A3029 RMK A01 T10031008  RH  096%=      5-min Rain = 0
KCO1 090939Z 16005KT M00/M01 A3029 RMK A01 T10021008  RH  096%=      5-min Rain = 0
KCO1 090940Z 16004KT M00/M01 A3029 RMK A01 T10021008  RH  096%=      5-min Rain = 0
KCO1 090941Z 16004KT M00/M01 A303 RMK A01 T10021008  RH  096%=      5-min Rain = 0
KCO1 090942Z 16004KT M00/M01 A303 RMK A01 T10021008  RH  096%=      5-min Rain = 0
KCO1 090943Z 16004KT M00/M01 A303 RMK A01 T10021007  RH  096%=      5-min Rain = 0
KCO1 090944Z 16004KT M00/M01 A3029 RMK A01 T10021007  RH  096%=      5-min Rain = 0
KCO1 090945Z 16004KT M00/M01 A3029 RMK A01 T10021007  RH  096%=      5-min Rain = 0
KCO1 090946Z 15004KT M00/M01 A3029 RMK A01 T10021007  RH  096%=      5-min Rain = 0
KCO1 090947Z 15004KT M00/M01 A3029 RMK A01 T10021007  RH  096%=      5-min Rain = 0
KCO1 090948Z 15004KT M00/M01 A3029 RMK A01 T10021007  RH  096%=      5-min Rain = 0
KCO1 090949Z 15004KT M00/M01 A3029 RMK A01 T10021007  RH  096%=      5-min Rain = 0
KCO1 090950Z 16004KT M00/M01 A3029 RMK A01 T10021007  RH  096%=      5-min Rain = 0
KCO1 090951Z 16004KT M00/M01 A3029 RMK A01 T10021007  RH  096%=      5-min Rain = 0
KCO1 090952Z 16004KT M00/M01 A3029 RMK A01 T10021007  RH  096%=      5-min Rain = 0
KCO1 090953Z 16004KT M00/M01 A3029 RMK A01 T10021007  RH  096%=      5-min Rain = 0
KCO1 090954Z 16005KT M00/M01 A3029 RMK A01 T10021008  RH  096%=      5-min Rain = 0
KCO1 090955Z 16005KT M00/M01 A3029 RMK A01 T10021008  RH  096%=      5-min Rain = 0
KCO1 090956Z 16005KT M00/M01 A3029 RMK A01 T10031008  RH  096%=      5-min Rain = 0
KCO1 090957Z 16005KT M00/M01 A3029 RMK A01 T10031008  RH  096%=      5-min Rain = 0
KCO1 090958Z 16004KT M00/M01 A3029 RMK A01 T10031008  RH  096%=      5-min Rain = 0
KCO1 090959Z 16004KT M00/M01 A3029 RMK A01 T10031008  RH  096%=      5-min Rain = 0
KCO1 091000Z 16004KT M00/M01 A3029 RMK A01 T10031008  RH  096%=      5-min Rain = 0
KCO1 091001Z 16004KT M00/M01 A3029 RMK A01 T10031008  RH  096%=      5-min Rain = 0
KCO1 091002Z 16003KT M00/M01 A3029 RMK A01 T10031008  RH  096%=      5-min Rain = 0
KCO1 091003Z 16003KT M00/M01 A3029 RMK A01 T10031008  RH  096%=      5-min Rain = 0
KCO1 091004Z 16003KT M00/M01 A3029 RMK A01 T10021007  RH  096%=      5-min Rain = 0
KCO1 091005Z 16003KT M00/M01 A3029 RMK A01 T10021007  RH  097%=      5-min Rain = 0
KCO1 091006Z 16003KT M00/M01 A303 RMK A01 T10021007  RH  097%=      5-min Rain = 0
KCO1 091007Z 16003KT M00/M01 A303 RMK A01 T10011006  RH  097%=      5-min Rain = 0
KCO1 091008Z 16003KT M00/M01 A303 RMK A01 T10021006  RH  097%=      5-min Rain = 0
KCO1 091009Z 16003KT M00/M01 A3029 RMK A01 T10011006  RH  097%=      5-min Rain = 0
KCO1 091010Z 16003KT M00/M01 A3029 RMK A01 T10011006  RH  097%=      5-min Rain = 0
KCO1 091011Z 16003KT M00/M01 A3029 RMK A01 T10011006  RH  097%=      5-min Rain = 0
KCO1 091012Z 16003KT M00/M01 A3029 RMK A01 T10011006  RH  097%=      5-min Rain = 0
KCO1 091013Z 16003KT M00/M01 A3029 RMK A01 T10011006  RH  097%=      5-min Rain = 0
KCO1 091014Z 16003KT M00/M01 A3029 RMK A01 T10011006  RH  097%=      5-min Rain = 0
KCO1 091015Z 16002KT M00/M01 A3029 RMK A01 T10011006  RH  097%=      5-min Rain = 0
KCO1 091016Z 16002KT M00/M01 A3029 RMK A01 T10011006  RH  096%=      5-min Rain = 0
KCO1 091017Z 16001KT M00/M01 A3029 RMK A01 T10021007  RH  096%=      5-min Rain = 0
KCO1 091018Z 00000KT M00/M01 A3029 RMK A01 T10021007  RH  096%=      5-min Rain = 0
KCO1 091019Z 00000KT M00/M01 A303 RMK A01 T10031008  RH  096%=      5-min Rain = 0
KCO1 091020Z 00000KT M00/M01 A303 RMK A01 T10031009  RH  096%=      5-min Rain = 0
KCO1 091021Z 00000KT M00/M01 A3029 RMK A01 T10041010  RH  096%=      5-min Rain = 0
KCO1 091022Z 16000KT M01/M01 A3029 RMK A01 T10061011  RH  096%=      5-min Rain = 0
KCO1 091023Z 16001KT M01/M01 A3029 RMK A01 T10061012  RH  096%=      5-min Rain = 0
KCO1 091024Z 16000KT M01/M01 A3029 RMK A01 T10071012  RH  096%=      5-min Rain = 0
KCO1 091025Z 16000KT M01/M01 A3029 RMK A01 T10071013  RH  096%=      5-min Rain = 0
KCO1 091026Z 16000KT M01/M01 A303 RMK A01 T10071013  RH  096%=      5-min Rain = 0
KCO1 091027Z 16000KT M01/M01 A303 RMK A01 T10081013  RH  096%=      5-min Rain = 0
KCO1 091028Z 16000KT M01/M01 A3029 RMK A01 T10071013  RH  096%=      5-min Rain = 0
KCO1 091029Z 16000KT M01/M01 A3029 RMK A01 T10081014  RH  096%=      5-min Rain = 0
KCO1 091030Z 16001KT M01/M01 A303 RMK A01 T10081014  RH  096%=      5-min Rain = 0
KCO1 091031Z 15001KT M01/M02 A303 RMK A01 T10091015  RH  096%=      5-min Rain = 0
KCO1 091032Z 15001KT M01/M02 A303 RMK A01 T10091015  RH  096%=      5-min Rain = 0
KCO1 091033Z 15001KT M01/M02 A3029 RMK A01 T10101016  RH  096%=      5-min Rain = 0
KCO1 091034Z 15002KT M01/M02 A3029 RMK A01 T10101016  RH  096%=      5-min Rain = 0
KCO1 091035Z 16002KT M01/M02 A3029 RMK A01 T10101015  RH  096%=      5-min Rain = 0
KCO1 091036Z 16002KT M01/M02 A3029 RMK A01 T10101015  RH  096%=      5-min Rain = 0
KCO1 091037Z 16002KT M01/M02 A3029 RMK A01 T10101015  RH  096%=      5-min Rain = 0
KCO1 091038Z 16002KT M01/M02 A3029 RMK A01 T10101015  RH  096%=      5-min Rain = 0
KCO1 091039Z 16002KT M01/M02 A3029 RMK A01 T10101016  RH  096%=      5-min Rain = 0
KCO1 091040Z 17002KT M01/M02 A3029 RMK A01 T10101016  RH  096%=      5-min Rain = 0
KCO1 091041Z 17002KT M01/M02 A303 RMK A01 T10101016  RH  096%=      5-min Rain = 0
KCO1 091042Z 17002KT M01/M02 A303 RMK A01 T10101015  RH  096%=      5-min Rain = 0
KCO1 091043Z 17002KT M01/M02 A303 RMK A01 T10101016  RH  096%=      5-min Rain = 0
KCO1 091044Z 17002KT M01/M02 A303 RMK A01 T10111016  RH  096%=      5-min Rain = 0
KCO1 091045Z 17001KT M01/M02 A303 RMK A01 T10111016  RH  096%=      5-min Rain = 0
KCO1 091046Z 18001KT M01/M02 A303 RMK A01 T10121017  RH  096%=      5-min Rain = 0
KCO1 091047Z 18001KT M01/M02 A303 RMK A01 T10121017  RH  096%=      5-min Rain = 0
KCO1 091048Z 18001KT M01/M02 A303 RMK A01 T10111016  RH  097%=      5-min Rain = 0
KCO1 091049Z 18001KT M01/M02 A303 RMK A01 T10111016  RH  097%=      5-min Rain = 0
KCO1 091050Z 18001KT M01/M02 A303 RMK A01 T10111016  RH  097%=      5-min Rain = 0
KCO1 091051Z 18001KT M01/M02 A303 RMK A01 T10111015  RH  097%=      5-min Rain = 0
KCO1 091052Z 18001KT M01/M02 A303 RMK A01 T10111016  RH  097%=      5-min Rain = 0
KCO1 091053Z 18001KT M01/M02 A303 RMK A01 T10111016  RH  097%=      5-min Rain = 0
KCO1 091054Z 18001KT M01/M02 A303 RMK A01 T10111016  RH  097%=      5-min Rain = 0
KCO1 091055Z 18001KT M01/M02 A303 RMK A01 T10111016  RH  097%=      5-min Rain = 0
KCO1 091056Z 18001KT M01/M02 A303 RMK A01 T10111015  RH  097%=      5-min Rain = 0
KCO1 091057Z 18001KT M01/M02 A303 RMK A01 T10111015  RH  097%=      5-min Rain = 0
KCO1 091058Z 18001KT M01/M02 A303 RMK A01 T10111015  RH  097%=      5-min Rain = 0
KCO1 091059Z 18001KT M01/M02 A303 RMK A01 T10111015  RH  097%=      5-min Rain = 0
KCO1 091100Z 18000KT M01/M02 A303 RMK A01 T10111015  RH  097%=      5-min Rain = 0
KCO1 091101Z 18000KT M01/M02 A303 RMK A01 T10111015  RH  097%=      5-min Rain = 0
KCO1 091102Z 18000KT M01/M02 A303 RMK A01 T10111015  RH  097%=      5-min Rain = 0
KCO1 091103Z 18000KT M01/M02 A303 RMK A01 T10111015  RH  097%=      5-min Rain = 0
KCO1 091104Z 00000KT M01/M02 A303 RMK A01 T10111015  RH  097%=      5-min Rain = 0
KCO1 091105Z 00000KT M01/M01 A303 RMK A01 T10101014  RH  097%=      5-min Rain = 0
KCO1 091106Z 00000KT M01/M01 A303 RMK A01 T10091013  RH  097%=      5-min Rain = 0
KCO1 091107Z 00000KT M01/M01 A303 RMK A01 T10101014  RH  097%=      5-min Rain = 0
KCO1 091108Z 00000KT M01/M02 A303 RMK A01 T10111015  RH  097%=      5-min Rain = 0
KCO1 091109Z 00000KT M01/M02 A303 RMK A01 T10111016  RH  097%=      5-min Rain = 0
KCO1 091110Z 00000KT M01/M02 A303 RMK A01 T10121016  RH  097%=      5-min Rain = 0
KCO1 091111Z 00000KT M01/M02 A303 RMK A01 T10121017  RH  097%=      5-min Rain = 0
KCO1 091112Z 00000KT M01/M02 A303 RMK A01 T10131017  RH  097%=      5-min Rain = 0
KCO1 091113Z 00000KT M01/M02 A303 RMK A01 T10121017  RH  097%=      5-min Rain = 0
KCO1 091114Z 18001KT M01/M02 A303 RMK A01 T10131017  RH  097%=      5-min Rain = 0
KCO1 091115Z 18001KT M01/M02 A303 RMK A01 T10131018  RH  097%=      5-min Rain = 0
KCO1 091116Z 18002KT M01/M02 A303 RMK A01 T10131018  RH  097%=      5-min Rain = 0
KCO1 091117Z 18002KT M01/M02 A303 RMK A01 T10131018  RH  097%=      5-min Rain = 0
KCO1 091118Z 34002KT M01/M02 A303 RMK A01 T10141018  RH  097%=      5-min Rain = 0
KCO1 091119Z 35002KT M01/M02 A303 RMK A01 T10141019  RH  097%=      5-min Rain = 0
KCO1 091120Z 35002KT M02/M02 A303 RMK A01 T10151019  RH  097%=      5-min Rain = 0
KCO1 091121Z 35002KT M02/M02 A303 RMK A01 T10151019  RH  097%=      5-min Rain = 0
KCO1 091122Z 00002KT M02/M02 A303 RMK A01 T10151019  RH  097%=      5-min Rain = 0
KCO1 091123Z 00003KT M02/M02 A303 RMK A01 T10151020  RH  097%=      5-min Rain = 0
KCO1 091124Z 00003KT M02/M02 A3031 RMK A01 T10161021  RH  097%=      5-min Rain = 0
KCO1 091125Z 00003KT M02/M02 A3031 RMK A01 T10161021  RH  097%=      5-min Rain = 0
KCO1 091126Z 01004KT M02/M02 A3031 RMK A01 T10161021  RH  097%=      5-min Rain = 0
KCO1 091127Z 01004KT M02/M02 A3031 RMK A01 T10171021  RH  097%=      5-min Rain = 0
KCO1 091128Z 01004KT M02/M02 A3031 RMK A01 T10161021  RH  097%=      5-min Rain = 0
KCO1 091129Z 01004KT M02/M02 A3031 RMK A01 T10171022  RH  097%=      5-min Rain = 0
KCO1 091130Z 01004KT M02/M02 A3031 RMK A01 T10171021  RH  097%=      5-min Rain = 0
KCO1 091131Z 01004KT M02/M02 A3031 RMK A01 T10171021  RH  097%=      5-min Rain = 0
KCO1 091132Z 01005KT M02/M02 A3031 RMK A01 T10171021  RH  097%=      5-min Rain = 0
KCO1 091133Z 01005KT M02/M02 A3031 RMK A01 T10171021  RH  097%=      5-min Rain = 0
KCO1 091134Z 01004KT M02/M02 A3031 RMK A01 T10161021  RH  097%=      5-min Rain = 0
KCO1 091135Z 02004KT M02/M02 A303 RMK A01 T10161020  RH  097%=      5-min Rain = 0
KCO1 091136Z 02004KT M02/M02 A303 RMK A01 T10161021  RH  097%=      5-min Rain = 0
KCO1 091137Z 02004KT M02/M02 A303 RMK A01 T10161021  RH  097%=      5-min Rain = 0
KCO1 091138Z 02005KT M02/M02 A303 RMK A01 T10161021  RH  097%=      5-min Rain = 0
KCO1 091139Z 02005KT M02/M02 A3031 RMK A01 T10171021  RH  097%=      5-min Rain = 0
KCO1 091140Z 03005KT M02/M02 A3031 RMK A01 T10171022  RH  097%=      5-min Rain = 0
KCO1 091141Z 03005KT M02/M02 A303 RMK A01 T10171022  RH  097%=      5-min Rain = 0
KCO1 091142Z 03004KT M02/M02 A303 RMK A01 T10171022  RH  097%=      5-min Rain = 0
KCO1 091143Z 04004KT M02/M02 A303 RMK A01 T10181022  RH  097%=      5-min Rain = 0
KCO1 091144Z 04004KT M02/M02 A303 RMK A01 T10171022  RH  097%=      5-min Rain = 0
KCO1 091145Z 04004KT M02/M02 A303 RMK A01 T10181022  RH  097%=      5-min Rain = 0
KCO1 091146Z 04004KT M02/M02 A303 RMK A01 T10171021  RH  097%=      5-min Rain = 0
KCO1 091147Z 04004KT M02/M02 A303 RMK A01 T10161021  RH  097%=      5-min Rain = 0
KCO1 091148Z 05004KT M02/M02 A303 RMK A01 T10161020  RH  097%=      5-min Rain = 0
KCO1 091149Z 05003KT M02/M02 A303 RMK A01 T10161020  RH  097%=      5-min Rain = 0
KCO1 091150Z 05004KT M02/M02 A303 RMK A01 T10151019  RH  097%=      5-min Rain = 0
KCO1 091151Z 05003KT M01/M02 A303 RMK A01 T10141018  RH  097%=      5-min Rain = 0
KCO1 091152Z 06003KT M01/M02 A303 RMK A01 T10141018  RH  097%=      5-min Rain = 0
KCO1 091153Z 05003KT M01/M02 A303 RMK A01 T10141018  RH  097%=      5-min Rain = 0
KCO1 091154Z 05003KT M01/M02 A3031 RMK A01 T10141017  RH  097%=      5-min Rain = 0
KCO1 091155Z 05003KT M01/M02 A3031 RMK A01 T10131017  RH  097%=      5-min Rain = 0
KCO1 091156Z 05003KT M01/M02 A3031 RMK A01 T10131017  RH  097%=      5-min Rain = 0
KCO1 091157Z 05003KT M01/M02 A3031 RMK A01 T10131016  RH  097%=      5-min Rain = 0
KCO1 091158Z 05003KT M01/M02 A3031 RMK A01 T10131016  RH  097%=      5-min Rain = 0
KCO1 091159Z 05003KT M01/M02 A3031 RMK A01 T10121016  RH  098%=      5-min Rain = 0
KCO1 091200Z 05004KT M01/M02 A3031 RMK A01 T10121016  RH  098%=      5-min Rain = 0
KCO1 091201Z 04004KT M01/M02 A3031 RMK A01 T10121016  RH  097%=      5-min Rain = 0
KCO1 091202Z 04004KT M01/M02 A3031 RMK A01 T10131017  RH  097%=      5-min Rain = 0
KCO1 091203Z 04004KT M01/M02 A3031 RMK A01 T10131017  RH  097%=      5-min Rain = 0
KCO1 091204Z 04004KT M01/M02 A3031 RMK A01 T10141018  RH  097%=      5-min Rain = 0
KCO1 091205Z 04004KT M01/M02 A3031 RMK A01 T10141018  RH  097%=      5-min Rain = 0
KCO1 091206Z 04004KT M01/M02 A3031 RMK A01 T10141018  RH  097%=      5-min Rain = 0
KCO1 091207Z 04004KT M02/M02 A3031 RMK A01 T10151019  RH  097%=      5-min Rain = 0
KCO1 091208Z 04004KT M02/M02 A3031 RMK A01 T10151019  RH  097%=      5-min Rain = 0
KCO1 091209Z 04004KT M02/M02 A3031 RMK A01 T10151019  RH  097%=      5-min Rain = 0
KCO1 091210Z 04004KT M02/M02 A3031 RMK A01 T10151019  RH  097%=      5-min Rain = 0
KCO1 091211Z 05003KT M02/M02 A3031 RMK A01 T10151019  RH  097%=      5-min Rain = 0
KCO1 091212Z 05003KT M02/M02 A3031 RMK A01 T10151019  RH  097%=      5-min Rain = 0
KCO1 091213Z 05003KT M02/M02 A3031 RMK A01 T10151019  RH  097%=      5-min Rain = 0
KCO1 091214Z 05003KT M02/M02 A3031 RMK A01 T10151019  RH  097%=      5-min Rain = 0
KCO1 091215Z 05004KT M02/M02 A3031 RMK A01 T10151019  RH  097%=      5-min Rain = 0
KCO1 091216Z 05004KT M02/M02 A3032 RMK A01 T10161019  RH  097%=      5-min Rain = 0
KCO1 091217Z 05004KT M02/M02 A3032 RMK A01 T10151019  RH  097%=      5-min Rain = 0
KCO1 091218Z 05004KT M02/M02 A3032 RMK A01 T10151019  RH  097%=      5-min Rain = 0
KCO1 091219Z 05004KT M02/M02 A3032 RMK A01 T10151019  RH  097%=      5-min Rain = 0
KCO1 091220Z 05004KT M02/M02 A3032 RMK A01 T10161020  RH  097%=      5-min Rain = 0
KCO1 091221Z 04004KT M02/M02 A3032 RMK A01 T10161020  RH  097%=      5-min Rain = 0
KCO1 091222Z 04004KT M02/M02 A3032 RMK A01 T10161020  RH  097%=      5-min Rain = 0
KCO1 091223Z 04004KT M02/M02 A3032 RMK A01 T10161020  RH  097%=      5-min Rain = 0
KCO1 091224Z 04004KT M02/M02 A3032 RMK A01 T10161020  RH  097%=      5-min Rain = 0
KCO1 091225Z 04004KT M02/M02 A3032 RMK A01 T10161020  RH  097%=      5-min Rain = 0
KCO1 091226Z 04004KT M02/M02 A3032 RMK A01 T10161020  RH  097%=      5-min Rain = 0
KCO1 091227Z 04004KT M02/M02 A3032 RMK A01 T10161020  RH  097%=      5-min Rain = 0
KCO1 091228Z 04004KT M02/M02 A3032 RMK A01 T10161020  RH  097%=      5-min Rain = 0
KCO1 091229Z 04004KT M02/M02 A3033 RMK A01 T10161020  RH  097%=      5-min Rain = 0
KCO1 091230Z 04004KT M02/M02 A3033 RMK A01 T10161019  RH  098%=      5-min Rain = 0
KCO1 091231Z 04004KT M02/M02 A3033 RMK A01 T10161019  RH  098%=      5-min Rain = 0
KCO1 091232Z 04004KT M02/M02 A3033 RMK A01 T10161019  RH  098%=      5-min Rain = 0
KCO1 091233Z 04004KT M02/M02 A3033 RMK A01 T10151019  RH  098%=      5-min Rain = 0
KCO1 091234Z 05005KT M02/M02 A3033 RMK A01 T10151018  RH  098%=      5-min Rain = 0
KCO1 091235Z 05005KT M02/M02 A3033 RMK A01 T10151018  RH  098%=      5-min Rain = 0
KCO1 091236Z 05005KT M01/M02 A3033 RMK A01 T10141017  RH  098%=      5-min Rain = 0
KCO1 091237Z 05005KT M01/M02 A3033 RMK A01 T10141018  RH  098%=      5-min Rain = 0
KCO1 091238Z 05005KT M01/M02 A3033 RMK A01 T10141018  RH  098%=      5-min Rain = 0
KCO1 091239Z 05005KT M01/M02 A3033 RMK A01 T10141017  RH  098%=      5-min Rain = 0
KCO1 091240Z 05004KT M01/M02 A3033 RMK A01 T10141018  RH  098%=      5-min Rain = 0
KCO1 091241Z 05004KT M02/M02 A3033 RMK A01 T10151018  RH  098%=      5-min Rain = 0
KCO1 091242Z 05004KT M02/M02 A3033 RMK A01 T10151018  RH  098%=      5-min Rain = 0
KCO1 091243Z 04004KT M02/M02 A3033 RMK A01 T10151019  RH  098%=      5-min Rain = 0
KCO1 091244Z 05004KT M02/M02 A3033 RMK A01 T10151018  RH  098%=      5-min Rain = 0
KCO1 091245Z 05004KT M02/M02 A3033 RMK A01 T10151019  RH  098%=      5-min Rain = 0
KCO1 091246Z 04005KT M02/M02 A3033 RMK A01 T10151019  RH  098%=      5-min Rain = 0
KCO1 091247Z 04005KT M02/M02 A3033 RMK A01 T10151019  RH  098%=      5-min Rain = 0
KCO1 091248Z 04005KT M02/M02 A3033 RMK A01 T10161019  RH  098%=      5-min Rain = 0
KCO1 091249Z 04005KT M02/M02 A3033 RMK A01 T10151019  RH  098%=      5-min Rain = 0
KCO1 091250Z 04004KT M02/M02 A3033 RMK A01 T10161019  RH  098%=      5-min Rain = 0
KCO1 091251Z 04004KT M02/M02 A3033 RMK A01 T10161019  RH  098%=      5-min Rain = 0
KCO1 091252Z 04004KT M02/M02 A3033 RMK A01 T10161019  RH  098%=      5-min Rain = 0
KCO1 091253Z 04004KT M02/M02 A3034 RMK A01 T10161019  RH  098%=      5-min Rain = 0
KCO1 091254Z 04005KT M02/M02 A3034 RMK A01 T10161019  RH  098%=      5-min Rain = 0
KCO1 091255Z 04005KT M02/M02 A3034 RMK A01 T10161019  RH  098%=      5-min Rain = 0
KCO1 091256Z 04005KT M02/M02 A3034 RMK A01 T10161019  RH  098%=      5-min Rain = 0
KCO1 091257Z 04005KT M02/M02 A3034 RMK A01 T10151018  RH  098%=      5-min Rain = 0
KCO1 091258Z 04004KT M02/M02 A3034 RMK A01 T10151018  RH  098%=      5-min Rain = 0
KCO1 091259Z 04004KT M02/M02 A3034 RMK A01 T10151018  RH  098%=      5-min Rain = 0
KCO1 091300Z 05004KT M02/M02 A3034 RMK A01 T10151018  RH  098%=      5-min Rain = 0
KCO1 091301Z 05004KT M02/M02 A3034 RMK A01 T10151018  RH  098%=      5-min Rain = 0
KCO1 091302Z 05004KT M02/M02 A3034 RMK A01 T10151018  RH  098%=      5-min Rain = 0
KCO1 091303Z 05004KT M02/M02 A3034 RMK A01 T10151018  RH  098%=      5-min Rain = 0
KCO1 091304Z 05004KT M02/M02 A3034 RMK A01 T10151018  RH  098%=      5-min Rain = 0
KCO1 091305Z 05004KT M02/M02 A3034 RMK A01 T10151018  RH  098%=      5-min Rain = 0
KCO1 091306Z 05004KT M02/M02 A3034 RMK A01 T10151018  RH  098%=      5-min Rain = 0
KCO1 091307Z 05004KT M02/M02 A3034 RMK A01 T10151018  RH  098%=      5-min Rain = 0
KCO1 091308Z 05003KT M02/M02 A3034 RMK A01 T10151019  RH  098%=      5-min Rain = 0
KCO1 091309Z 05004KT M02/M02 A3034 RMK A01 T10151019  RH  098%=      5-min Rain = 0
KCO1 091310Z 05003KT M02/M02 A3034 RMK A01 T10151018  RH  098%=      5-min Rain = 0
KCO1 091311Z 05004KT M02/M02 A3034 RMK A01 T10161019  RH  098%=      5-min Rain = 0
KCO1 091312Z 05004KT M02/M02 A3035 RMK A01 T10161019  RH  098%=      5-min Rain = 0
KCO1 091313Z 05004KT M02/M02 A3035 RMK A01 T10161019  RH  098%=      5-min Rain = 0
KCO1 091314Z 04003KT M02/M02 A3035 RMK A01 T10161019  RH  098%=      5-min Rain = 0
KCO1 091315Z 05003KT M02/M02 A3035 RMK A01 T10161019  RH  098%=      5-min Rain = 0
KCO1 091316Z 05003KT M02/M02 A3035 RMK A01 T10161019  RH  098%=      5-min Rain = 0
KCO1 091317Z 04003KT M02/M02 A3035 RMK A01 T10161020  RH  098%=      5-min Rain = 0
KCO1 091318Z 04003KT M02/M02 A3035 RMK A01 T10161019  RH  098%=      5-min Rain = 0
KCO1 091319Z 03003KT M02/M02 A3035 RMK A01 T10161019  RH  098%=      5-min Rain = 0
KCO1 091320Z 04003KT M02/M02 A3035 RMK A01 T10161019  RH  098%=      5-min Rain = 0
KCO1 091321Z 05003KT M02/M02 A3035 RMK A01 T10161019  RH  098%=      5-min Rain = 0
KCO1 091322Z 05003KT M02/M02 A3035 RMK A01 T10161019  RH  098%=      5-min Rain = 0
KCO1 091323Z 06003KT M02/M02 A3035 RMK A01 T10161019  RH  098%=      5-min Rain = 0
KCO1 091324Z 06003KT M02/M02 A3035 RMK A01 T10171020  RH  098%=      5-min Rain = 0
KCO1 091325Z 06003KT M02/M02 A3035 RMK A01 T10171020  RH  098%=      5-min Rain = 0
KCO1 091326Z 06003KT M02/M02 A3035 RMK A01 T10171020  RH  098%=      5-min Rain = 0
KCO1 091327Z 06003KT M02/M02 A3035 RMK A01 T10171021  RH  098%=      5-min Rain = 0
KCO1 091328Z 06003KT M02/M02 A3035 RMK A01 T10171021  RH  098%=      5-min Rain = 0
KCO1 091329Z 06004KT M02/M02 A3035 RMK A01 T10181021  RH  098%=      5-min Rain = 0
KCO1 091330Z 06004KT M02/M02 A3035 RMK A01 T10181021  RH  098%=      5-min Rain = 0
KCO1 091331Z 07004KT M02/M02 A3035 RMK A01 T10181021  RH  098%=      5-min Rain = 0
KCO1 091332Z 07003KT M02/M02 A3035 RMK A01 T10171021  RH  098%=      5-min Rain = 0
KCO1 091333Z 07003KT M02/M02 A3035 RMK A01 T10181021  RH  098%=      5-min Rain = 0
KCO1 091334Z 06003KT M02/M02 A3035 RMK A01 T10171020  RH  098%=      5-min Rain = 0
KCO1 091335Z 06003KT M02/M02 A3035 RMK A01 T10171020  RH  098%=      5-min Rain = 0
KCO1 091336Z 06003KT M02/M02 A3035 RMK A01 T10161019  RH  098%=      5-min Rain = 0
KCO1 091337Z 07004KT M02/M02 A3035 RMK A01 T10161019  RH  098%=      5-min Rain = 0
KCO1 091338Z 07003KT M02/M02 A3035 RMK A01 T10161019  RH  098%=      5-min Rain = 0
KCO1 091339Z 06004KT M02/M02 A3035 RMK A01 T10161018  RH  098%=      5-min Rain = 0
KCO1 091340Z 06004KT M02/M02 A3036 RMK A01 T10151018  RH  098%=      5-min Rain = 0
KCO1 091341Z 05003KT M02/M02 A3036 RMK A01 T10151018  RH  098%=      5-min Rain = 0
KCO1 091342Z 05003KT M02/M02 A3036 RMK A01 T10151018  RH  098%=      5-min Rain = 0
KCO1 091343Z 05002KT M02/M02 A3036 RMK A01 T10151018  RH  098%=      5-min Rain = 0
KCO1 091344Z 05003KT M02/M02 A3036 RMK A01 T10151018  RH  098%=      5-min Rain = 0
KCO1 091345Z 05003KT M02/M02 A3036 RMK A01 T10151018  RH  098%=      5-min Rain = 0
KCO1 091346Z 05004KT M02/M02 A3036 RMK A01 T10151018  RH  098%=      5-min Rain = 0
KCO1 091347Z 05004KT M02/M02 A3036 RMK A01 T10151018  RH  098%=      5-min Rain = 0
KCO1 091348Z 05004KT M02/M02 A3036 RMK A01 T10151018  RH  098%=      5-min Rain = 0
KCO1 091349Z 06004KT M02/M02 A3036 RMK A01 T10151018  RH  098%=      5-min Rain = 0
KCO1 091350Z 06004KT M02/M02 A3036 RMK A01 T10161019  RH  098%=      5-min Rain = 0
KCO1 091351Z 06003KT M02/M02 A3036 RMK A01 T10161019  RH  098%=      5-min Rain = 0
KCO1 091352Z 05003KT M02/M02 A3036 RMK A01 T10161019  RH  098%=      5-min Rain = 0
KCO1 091353Z 05003KT M02/M02 A3036 RMK A01 T10161019  RH  098%=      5-min Rain = 0
KCO1 091354Z 05003KT M02/M02 A3036 RMK A01 T10161019  RH  098%=      5-min Rain = 0
KCO1 091355Z 05003KT M02/M02 A3036 RMK A01 T10161019  RH  098%=      5-min Rain = 0
KCO1 091356Z 06003KT M02/M02 A3036 RMK A01 T10161018  RH  098%=      5-min Rain = 0
KCO1 091357Z 06003KT M02/M02 A3036 RMK A01 T10161019  RH  098%=      5-min Rain = 0
KCO1 091358Z 06003KT M02/M02 A3036 RMK A01 T10161018  RH  098%=      5-min Rain = 0
KCO1 091359Z 06003KT M02/M02 A3036 RMK A01 T10161018  RH  098%=      5-min Rain = 0
KCO1 091400Z 06003KT M02/M02 A3036 RMK A01 T10151018  RH  098%=      5-min Rain = 0
KCO1 091401Z 06003KT M02/M02 A3036 RMK A01 T10151018  RH  098%=      5-min Rain = 0
KCO1 091402Z 06003KT M02/M02 A3036 RMK A01 T10151018  RH  098%=      5-min Rain = 0
KCO1 091403Z 06003KT M02/M02 A3036 RMK A01 T10151017  RH  098%=      5-min Rain = 0
KCO1 091404Z 06003KT M02/M02 A3036 RMK A01 T10151018  RH  098%=      5-min Rain = 0
KCO1 091405Z 06003KT M02/M02 A3036 RMK A01 T10151018  RH  098%=      5-min Rain = 0
KCO1 091406Z 06003KT M01/M02 A3036 RMK A01 T10141017  RH  098%=      5-min Rain = 0
KCO1 091407Z 05003KT M01/M02 A3037 RMK A01 T10141017  RH  098%=      5-min Rain = 0
KCO1 091408Z 05003KT M01/M02 A3037 RMK A01 T10141017  RH  098%=      5-min Rain = 0
KCO1 091409Z 05003KT M01/M02 A3037 RMK A01 T10141016  RH  098%=      5-min Rain = 0
KCO1 091410Z 04003KT M01/M02 A3037 RMK A01 T10131016  RH  098%=      5-min Rain = 0
KCO1 091411Z 05003KT M01/M02 A3037 RMK A01 T10131016  RH  098%=      5-min Rain = 0
KCO1 091412Z 05003KT M01/M02 A3036 RMK A01 T10121015  RH  098%=      5-min Rain = 0
KCO1 091413Z 06003KT M01/M02 A3036 RMK A01 T10121015  RH  098%=      5-min Rain = 0
KCO1 091414Z 06003KT M01/M01 A3036 RMK A01 T10111014  RH  098%=      5-min Rain = 0
KCO1 091415Z 06004KT M01/M01 A3037 RMK A01 T10111014  RH  098%=      5-min Rain = 0
KCO1 091416Z 06004KT M01/M01 A3037 RMK A01 T10101013  RH  098%=      5-min Rain = 0
KCO1 091417Z 06005KT M01/M01 A3037 RMK A01 T10101012  RH  098%=      5-min Rain = 0
KCO1 091418Z 05004KT M01/M01 A3037 RMK A01 T10091012  RH  098%=      5-min Rain = 0
KCO1 091419Z 05004KT M01/M01 A3037 RMK A01 T10091012  RH  098%=      5-min Rain = 0
KCO1 091420Z 06005KT M01/M01 A3037 RMK A01 T10091012  RH  098%=      5-min Rain = 0
KCO1 091421Z 06004KT M01/M01 A3037 RMK A01 T10091012  RH  098%=      5-min Rain = 0
KCO1 091422Z 06004KT M01/M01 A3037 RMK A01 T10081011  RH  098%=      5-min Rain = 0
KCO1 091423Z 06003KT M01/M01 A3038 RMK A01 T10081011  RH  098%=      5-min Rain = 0
KCO1 091424Z 06004KT M01/M01 A3038 RMK A01 T10081011  RH  098%=      5-min Rain = 0
KCO1 091425Z 07004KT M01/M01 A3038 RMK A01 T10081011  RH  098%=      5-min Rain = 0
KCO1 091426Z 06005KT M01/M01 A3038 RMK A01 T10081011  RH  098%=      5-min Rain = 0
KCO1 091427Z 06004KT M01/M01 A3038 RMK A01 T10081011  RH  098%=      5-min Rain = 0
KCO1 091428Z 06003KT M01/M01 A3038 RMK A01 T10081011  RH  098%=      5-min Rain = 0
KCO1 091429Z 07003KT M01/M01 A3038 RMK A01 T10081011  RH  098%=      5-min Rain = 0
KCO1 091430Z 06003KT M01/M01 A3038 RMK A01 T10081011  RH  098%=      5-min Rain = 0
KCO1 091431Z 06004KT M01/M01 A3038 RMK A01 T10081011  RH  098%=      5-min Rain = 0
KCO1 091432Z 07004KT M01/M01 A3038 RMK A01 T10081011  RH  098%=      5-min Rain = 0
KCO1 091433Z 07004KT M01/M01 A3038 RMK A01 T10081011  RH  098%=      5-min Rain = 0
KCO1 091434Z 07003KT M01/M01 A3038 RMK A01 T10081011  RH  098%=      5-min Rain = 0
KCO1 091435Z 07003KT M01/M01 A3038 RMK A01 T10081011  RH  098%=      5-min Rain = 0
KCO1 091436Z 07003KT M01/M01 A3038 RMK A01 T10081011  RH  098%=      5-min Rain = 0
KCO1 091437Z 08004KT M01/M01 A3038 RMK A01 T10081011  RH  098%=      5-min Rain = 0
KCO1 091438Z 08004KT M01/M01 A3038 RMK A01 T10081011  RH  098%=      5-min Rain = 0
KCO1 091439Z 07003KT M01/M01 A3038 RMK A01 T10081011  RH  098%=      5-min Rain = 0
KCO1 091440Z 09003KT M01/M01 A3038 RMK A01 T10081011  RH  098%=      5-min Rain = 0
KCO1 091441Z 09003KT M01/M01 A3038 RMK A01 T10081011  RH  098%=      5-min Rain = 0
KCO1 091442Z 09003KT M01/M01 A3039 RMK A01 T10081011  RH  098%=      5-min Rain = 0
KCO1 091443Z 09003KT M01/M01 A3039 RMK A01 T10081010  RH  098%=      5-min Rain = 0
KCO1 091444Z 08004KT M01/M01 A3039 RMK A01 T10071010  RH  098%=      5-min Rain = 0
KCO1 091445Z 08004KT M01/M01 A3039 RMK A01 T10071010  RH  098%=      5-min Rain = 0
KCO1 091446Z 09004KT M01/M01 A3039 RMK A01 T10071010  RH  098%=      5-min Rain = 0
KCO1 091447Z 09004KT M01/M01 A3039 RMK A01 T10071009  RH  098%=      5-min Rain = 0
KCO1 091448Z 09004KT M01/M01 A3039 RMK A01 T10071009  RH  098%=      5-min Rain = 0
KCO1 091449Z 09004KT M01/M01 A3038 RMK A01 T10071009  RH  098%=      5-min Rain = 0
KCO1 091450Z 09004KT M01/M01 A3038 RMK A01 T10061009  RH  098%=      5-min Rain = 0
KCO1 091451Z 10004KT M01/M01 A3038 RMK A01 T10061009  RH  098%=      5-min Rain = 0
KCO1 091452Z 10004KT M01/M01 A3038 RMK A01 T10061008  RH  098%=      5-min Rain = 0
KCO1 091453Z 10004KT M01/M01 A3038 RMK A01 T10051008  RH  098%=      5-min Rain = 0
KCO1 091454Z 10004KT M01/M01 A3038 RMK A01 T10051008  RH  098%=      5-min Rain = 0
KCO1 091455Z 10003KT M01/M01 A3039 RMK A01 T10051007  RH  098%=      5-min Rain = 0
KCO1 091456Z 10003KT M01/M01 A3039 RMK A01 T10051007  RH  098%=      5-min Rain = 0
KCO1 091457Z 09004KT M01/M01 A3039 RMK A01 T10051007  RH  098%=      5-min Rain = 0
KCO1 091458Z 09004KT M01/M01 A3039 RMK A01 T10051007  RH  098%=      5-min Rain = 0
KCO1 091459Z 09003KT M00/M01 A3039 RMK A01 T10041007  RH  098%=      5-min Rain = 0
KCO1 091500Z 09003KT M01/M01 A3039 RMK A01 T10051007  RH  098%=      5-min Rain = 0
KCO1 091501Z 08003KT M00/M01 A3039 RMK A01 T10041006  RH  098%=      5-min Rain = 0
KCO1 091502Z 08003KT M00/M01 A3039 RMK A01 T10031006  RH  098%=      5-min Rain = 0
KCO1 091503Z 08004KT M00/M01 A3039 RMK A01 T10031005  RH  098%=      5-min Rain = 0
KCO1 091504Z 09003KT M00/M01 A3039 RMK A01 T10031005  RH  098%=      5-min Rain = 0
KCO1 091505Z 10003KT M00/M00 A3039 RMK A01 T10021004  RH  098%=      5-min Rain = 0
KCO1 091506Z 09003KT M00/M00 A3039 RMK A01 T10021004  RH  098%=      5-min Rain = 0
KCO1 091507Z 08003KT M00/M00 A3039 RMK A01 T10011004  RH  098%=      5-min Rain = 0
KCO1 091508Z 08003KT M00/M00 A3039 RMK A01 T10011003  RH  098%=      5-min Rain = 0
KCO1 091509Z 07003KT M00/M00 A304 RMK A01 T10011003  RH  098%=      5-min Rain = 0
KCO1 091510Z 06002KT 00/00 A304 RMK A01 T00-000-2  RH  098%=      5-min Rain = 0
KCO1 091511Z 08003KT 00/M00 A304 RMK A01 T00011001  RH  099%=      5-min Rain = 0
KCO1 091512Z 08003KT 00/M00 A304 RMK A01 T00011001  RH  099%=      5-min Rain = 0
KCO1 091513Z 08003KT 00/00 A304 RMK A01 T000200-0  RH  099%=      5-min Rain = 0
KCO1 091514Z 08003KT 00/00 A304 RMK A01 T00030001  RH  099%=      5-min Rain = 0
KCO1 091515Z 07003KT 00/00 A304 RMK A01 T00040002  RH  099%=      5-min Rain = 0
KCO1 091516Z 07003KT 00/00 A304 RMK A01 T00040002  RH  099%=      5-min Rain = 0
KCO1 091517Z 06004KT 00/00 A304 RMK A01 T00040002  RH  099%=      5-min Rain = 0
KCO1 091518Z 06004KT 01/00 A304 RMK A01 T00060003  RH  099%=      5-min Rain = 0
KCO1 091519Z 07004KT 01/00 A304 RMK A01 T00060004  RH  099%=      5-min Rain = 0
KCO1 091520Z 06003KT 01/01 A304 RMK A01 T00070005  RH  099%=      5-min Rain = 0
KCO1 091521Z 07003KT 01/01 A304 RMK A01 T00080006  RH  099%=      5-min Rain = 0
KCO1 091522Z 08003KT 01/01 A304 RMK A01 T00090007  RH  099%=      5-min Rain = 0
KCO1 091523Z 08003KT 01/01 A304 RMK A01 T00090007  RH  099%=      5-min Rain = 0
KCO1 091524Z 08003KT 01/01 A304 RMK A01 T00090007  RH  098%=      5-min Rain = 0
KCO1 091525Z 08003KT 01/01 A304 RMK A01 T00090007  RH  098%=      5-min Rain = 0
KCO1 091526Z 08002KT 01/01 A304 RMK A01 T00100008  RH  098%=      5-min Rain = 0
KCO1 091527Z 08002KT 01/01 A304 RMK A01 T00120010  RH  099%=      5-min Rain = 0
KCO1 091528Z 08002KT 01/01 A304 RMK A01 T00130011  RH  099%=      5-min Rain = 0
KCO1 091529Z 08002KT 01/01 A304 RMK A01 T00140012  RH  099%=      5-min Rain = 0
KCO1 091530Z 07003KT 01/01 A304 RMK A01 T00140012  RH  099%=      5-min Rain = 0
KCO1 091531Z 06002KT 01/01 A304 RMK A01 T00140012  RH  098%=      5-min Rain = 0
KCO1 091532Z 07002KT 01/01 A304 RMK A01 T00140012  RH  098%=      5-min Rain = 0
KCO1 091533Z 07003KT 01/01 A304 RMK A01 T00140012  RH  098%=      5-min Rain = 0
KCO1 091534Z 07002KT 02/01 A304 RMK A01 T00150013  RH  098%=      5-min Rain = 0
KCO1 091535Z 08002KT 02/02 A304 RMK A01 T00170015  RH  099%=      5-min Rain = 0
KCO1 091536Z 08002KT 02/02 A3041 RMK A01 T00190017  RH  099%=      5-min Rain = 0
KCO1 091537Z 09003KT 02/02 A3041 RMK A01 T00190017  RH  099%=      5-min Rain = 0
KCO1 091538Z 08002KT 02/02 A3041 RMK A01 T00200018  RH  099%=      5-min Rain = 0
KCO1 091539Z 08002KT 02/02 A3041 RMK A01 T00210019  RH  099%=      5-min Rain = 0
KCO1 091540Z 08002KT 02/02 A3041 RMK A01 T00210019  RH  099%=      5-min Rain = 0
KCO1 091541Z 07002KT 02/02 A3041 RMK A01 T00220020  RH  099%=      5-min Rain = 0
KCO1 091542Z 07003KT 02/02 A3041 RMK A01 T00240022  RH  099%=      5-min Rain = 0
KCO1 091543Z 07003KT 02/02 A3041 RMK A01 T00240022  RH  099%=      5-min Rain = 0
KCO1 091544Z 08004KT 03/02 A3041 RMK A01 T00260024  RH  099%=      5-min Rain = 0
KCO1 091545Z 06004KT 03/02 A3041 RMK A01 T00260024  RH  099%=      5-min Rain = 0
KCO1 091546Z 07005KT 03/02 A3041 RMK A01 T00260024  RH  098%=      5-min Rain = 0
KCO1 091547Z 07005KT 03/02 A3041 RMK A01 T00250023  RH  098%=      5-min Rain = 0
KCO1 091548Z 08004KT 03/02 A3041 RMK A01 T00250023  RH  098%=      5-min Rain = 0
KCO1 091549Z 07004KT 03/02 A3041 RMK A01 T00250022  RH  098%=      5-min Rain = 0
KCO1 091550Z 08004KT 03/02 A3041 RMK A01 T00250022  RH  098%=      5-min Rain = 0
KCO1 091551Z 07005KT 03/02 A3041 RMK A01 T00250023  RH  098%=      5-min Rain = 0
KCO1 091552Z 08004KT 03/02 A3041 RMK A01 T00260023  RH  098%=      5-min Rain = 0
KCO1 091553Z 08004KT 03/02 A3041 RMK A01 T00260024  RH  098%=      5-min Rain = 0
KCO1 091554Z 07004KT 03/02 A3041 RMK A01 T00260024  RH  098%=      5-min Rain = 0
KCO1 091555Z 08004KT 03/03 A3041 RMK A01 T00280025  RH  098%=      5-min Rain = 0
KCO1 091556Z 07003KT 03/03 A3041 RMK A01 T00280025  RH  098%=      5-min Rain = 0
KCO1 091557Z 07003KT 03/03 A3041 RMK A01 T00290026  RH  098%=      5-min Rain = 0
KCO1 091558Z 08004KT 03/03 A3041 RMK A01 T00310028  RH  098%=      5-min Rain = 0
KCO1 091559Z 09003KT 03/03 A3041 RMK A01 T00310029  RH  098%=      5-min Rain = 0
KCO1 091600Z 07004KT 03/03 A3041 RMK A01 T00330030  RH  098%=      5-min Rain = 0
KCO1 091601Z 07004KT 04/03 A3041 RMK A01 T00350032  RH  098%=      5-min Rain = 0
KCO1 091602Z 08004KT 04/03 A3042 RMK A01 T00360033  RH  098%=      5-min Rain = 0
KCO1 091603Z 08002KT 03/03 A3042 RMK A01 T00340030  RH  097%=      5-min Rain = 0
KCO1 091604Z 07003KT 03/03 A3042 RMK A01 T00340030  RH  097%=      5-min Rain = 0
KCO1 091605Z 09003KT 04/03 A3042 RMK A01 T00350030  RH  097%=      5-min Rain = 0
KCO1 091606Z 09004KT 04/03 A3042 RMK A01 T00350030  RH  097%=      5-min Rain = 0
KCO1 091607Z 08004KT 04/03 A3042 RMK A01 T00370032  RH  097%=      5-min Rain = 0
KCO1 091608Z 07005KT 04/03 A3042 RMK A01 T00370031  RH  096%=      5-min Rain = 0
KCO1 091609Z 07004KT 04/03 A3042 RMK A01 T00360030  RH  096%=      5-min Rain = 0
KCO1 091610Z 06004KT 04/03 A3042 RMK A01 T00370030  RH  095%=      5-min Rain = 0
KCO1 091611Z 07004KT 04/03 A3042 RMK A01 T00380031  RH  095%=      5-min Rain = 0
KCO1 091612Z 08003KT 04/03 A3042 RMK A01 T00390031  RH  095%=      5-min Rain = 0
KCO1 091613Z 08004KT 04/03 A3042 RMK A01 T00400031  RH  094%=      5-min Rain = 0
KCO1 091614Z 09005KT 04/03 A3042 RMK A01 T00400030  RH  093%=      5-min Rain = 0
KCO1 091615Z 10004KT 04/03 A3042 RMK A01 T00400028  RH  092%=      5-min Rain = 0
KCO1 091616Z 07004KT 04/03 A3042 RMK A01 T00410029  RH  092%=      5-min Rain = 0
KCO1 091617Z 08004KT 04/03 A3042 RMK A01 T00440031  RH  092%=      5-min Rain = 0
KCO1 091618Z 07005KT 04/03 A3042 RMK A01 T00440030  RH  091%=      5-min Rain = 0
KCO1 091619Z 07004KT 04/03 A3042 RMK A01 T00430027  RH  089%=      5-min Rain = 0
KCO1 091620Z 08004KT 04/03 A3042 RMK A01 T00430026  RH  088%=      5-min Rain = 0
KCO1 091621Z 09003KT 05/03 A3042 RMK A01 T00450027  RH  089%=      5-min Rain = 0
KCO1 091622Z 06004KT 05/03 A3042 RMK A01 T00470029  RH  088%=      5-min Rain = 0
KCO1 091623Z 07003KT 05/03 A3042 RMK A01 T00460026  RH  087%=      5-min Rain = 0
KCO1 091624Z 08004KT 05/03 A3042 RMK A01 T00470026  RH  086%=      5-min Rain = 0
KCO1 091625Z 08005KT 05/03 A3043 RMK A01 T00480026  RH  086%=      5-min Rain = 0
KCO1 091626Z 08004KT 05/02 A3043 RMK A01 T00480024  RH  085%=      5-min Rain = 0
KCO1 091627Z 08004KT 05/02 A3042 RMK A01 T00480022  RH  084%=      5-min Rain = 0
KCO1 091628Z 07004KT 05/02 A3043 RMK A01 T00480023  RH  084%=      5-min Rain = 0
KCO1 091629Z 07003KT 05/02 A3042 RMK A01 T00490023  RH  083%=      5-min Rain = 0
KCO1 091630Z 07004KT 05/03 A3042 RMK A01 T00500025  RH  084%=      5-min Rain = 0
KCO1 091631Z 10004KT 05/02 A3042 RMK A01 T00510024  RH  083%=      5-min Rain = 0
KCO1 091632Z 10004KT 05/02 A3042 RMK A01 T00510022  RH  082%=      5-min Rain = 0
KCO1 091633Z 11004KT 05/02 A3042 RMK A01 T00510021  RH  081%=      5-min Rain = 0
KCO1 091634Z 10004KT 05/02 A3042 RMK A01 T00500020  RH  081%=      5-min Rain = 0
KCO1 091635Z 10004KT 05/02 A3043 RMK A01 T00490019  RH  081%=      5-min Rain = 0
KCO1 091636Z 08003KT 05/02 A3043 RMK A01 T00510023  RH  082%=      5-min Rain = 0
KCO1 091637Z 08004KT 05/02 A3043 RMK A01 T00530024  RH  082%=      5-min Rain = 0
KCO1 091638Z 08004KT 05/02 A3043 RMK A01 T00520022  RH  081%=      5-min Rain = 0
KCO1 091639Z 08003KT 05/02 A3043 RMK A01 T00530023  RH  081%=      5-min Rain = 0
KCO1 091640Z 07003KT 06/03 A3043 RMK A01 T00550025  RH  081%=      5-min Rain = 0
KCO1 091641Z 05004KT 06/03 A3043 RMK A01 T00560025  RH  080%=      5-min Rain = 0
KCO1 091642Z 05004KT 06/02 A3043 RMK A01 T00550022  RH  079%=      5-min Rain = 0
KCO1 091643Z 07004KT 05/02 A3043 RMK A01 T00540022  RH  080%=      5-min Rain = 0
KCO1 091644Z 09003KT 05/02 A3043 RMK A01 T00540022  RH  080%=      5-min Rain = 0
KCO1 091645Z 09003KT 05/02 A3042 RMK A01 T00540021  RH  079%=      5-min Rain = 0
KCO1 091646Z 10004KT 06/02 A3042 RMK A01 T00550021  RH  079%=      5-min Rain = 0
KCO1 091647Z 09006KT 06/02 A3042 RMK A01 T00560021  RH  078%=      5-min Rain = 0
KCO1 091648Z 09005KT 06/02 A3042 RMK A01 T00560021  RH  078%=      5-min Rain = 0
KCO1 091649Z 09004KT 06/02 A3043 RMK A01 T00570021  RH  078%=      5-min Rain = 0
KCO1 091650Z 10002KT 06/02 A3042 RMK A01 T00550018  RH  077%=      5-min Rain = 0
KCO1 091651Z 08002KT 06/02 A3042 RMK A01 T00560019  RH  077%=      5-min Rain = 0
KCO1 091652Z 09004KT 06/02 A3043 RMK A01 T00580023  RH  078%=      5-min Rain = 0
KCO1 091653Z 09003KT 06/02 A3043 RMK A01 T00600023  RH  077%=      5-min Rain = 0
KCO1 091654Z 08004KT 06/03 A3043 RMK A01 T00620026  RH  078%=      5-min Rain = 0
KCO1 091655Z 07003KT 06/02 A3043 RMK A01 T00620024  RH  077%=      5-min Rain = 0
KCO1 091656Z 07004KT 06/02 A3042 RMK A01 T00610020  RH  075%=      5-min Rain = 0
KCO1 091657Z 06004KT 06/02 A3042 RMK A01 T00610020  RH  075%=      5-min Rain = 0
KCO1 091658Z 08004KT 06/02 A3042 RMK A01 T00600021  RH  076%=      5-min Rain = 0
KCO1 091659Z 08004KT 06/02 A3042 RMK A01 T00610023  RH  077%=      5-min Rain = 0
KCO1 091700Z 06005KT 06/03 A3042 RMK A01 T00630025  RH  077%=      5-min Rain = 0
KCO1 091701Z 07004KT 06/03 A3042 RMK A01 T00630025  RH  076%=      5-min Rain = 0
KCO1 091702Z 07003KT 06/03 A3042 RMK A01 T00640025  RH  076%=      5-min Rain = 0
KCO1 091703Z 08003KT 06/02 A3042 RMK A01 T00640024  RH  075%=      5-min Rain = 0
KCO1 091704Z 07003KT 06/02 A3042 RMK A01 T00640023  RH  075%=      5-min Rain = 0
KCO1 091705Z 09003KT 07/03 A3042 RMK A01 T00650025  RH  076%=      5-min Rain = 0
KCO1 091706Z 07005KT 07/02 A3042 RMK A01 T00650022  RH  074%=      5-min Rain = 0
KCO1 091707Z 08005KT 06/02 A3042 RMK A01 T00640022  RH  074%=      5-min Rain = 0
KCO1 091708Z 09005KT 06/02 A3042 RMK A01 T00640021  RH  074%=      5-min Rain = 0
KCO1 091709Z 08004KT 06/02 A3042 RMK A01 T00630018  RH  073%=      5-min Rain = 0
KCO1 091710Z 10002KT 06/02 A3042 RMK A01 T00630019  RH  073%=      5-min Rain = 0
KCO1 091711Z 10002KT 06/02 A3042 RMK A01 T00640021  RH  074%=      5-min Rain = 0
KCO1 091712Z 09004KT 07/02 A3042 RMK A01 T00660023  RH  074%=      5-min Rain = 0
KCO1 091713Z 08004KT 07/02 A3042 RMK A01 T00670024  RH  074%=      5-min Rain = 0
KCO1 091714Z 10004KT 07/02 A3042 RMK A01 T00670023  RH  073%=      5-min Rain = 0
KCO1 091715Z 08005KT 07/02 A3042 RMK A01 T00660019  RH  072%=      5-min Rain = 0
KCO1 091716Z 08005KT 07/02 A3042 RMK A01 T00660020  RH  073%=      5-min Rain = 0
KCO1 091717Z 10003KT 06/02 A3042 RMK A01 T00640018  RH  072%=      5-min Rain = 0
KCO1 091718Z 07002KT 07/02 A3042 RMK A01 T00650022  RH  074%=      5-min Rain = 0
KCO1 091719Z 08004KT 07/02 A3042 RMK A01 T00670022  RH  073%=      5-min Rain = 0
KCO1 091720Z 09003KT 07/02 A3042 RMK A01 T00670021  RH  072%=      5-min Rain = 0
KCO1 091721Z 09003KT 07/02 A3042 RMK A01 T00670021  RH  072%=      5-min Rain = 0
KCO1 091722Z 08005KT 07/02 A3042 RMK A01 T00670021  RH  072%=      5-min Rain = 0
KCO1 091723Z 10005KT 07/02 A3042 RMK A01 T00680024  RH  074%=      5-min Rain = 0
KCO1 091724Z 10005KT 07/02 A3042 RMK A01 T00680023  RH  073%=      5-min Rain = 0
KCO1 091725Z 06005KT 07/02 A3042 RMK A01 T00690024  RH  073%=      5-min Rain = 0
KCO1 091726Z 06005KT 07/02 A3042 RMK A01 T00700024  RH  073%=      5-min Rain = 0
KCO1 091727Z 06005KT 07/02 A3042 RMK A01 T00700023  RH  072%=      5-min Rain = 0
KCO1 091728Z 05004KT 07/02 A3042 RMK A01 T00690019  RH  071%=      5-min Rain = 0
KCO1 091729Z 05004KT 07/02 A3042 RMK A01 T00670020  RH  072%=      5-min Rain = 0
KCO1 091730Z 05004KT 07/02 A3041 RMK A01 T00660018  RH  071%=      5-min Rain = 0
KCO1 091731Z 04003KT 07/02 A3041 RMK A01 T00660020  RH  072%=      5-min Rain = 0
KCO1 091732Z 03004KT 07/03 A3041 RMK A01 T00680026  RH  074%=      5-min Rain = 0
KCO1 091733Z 08003KT 07/03 A3041 RMK A01 T00700026  RH  074%=      5-min Rain = 0
KCO1 091734Z 09005KT 07/03 A3042 RMK A01 T00710026  RH  073%=      5-min Rain = 0
KCO1 091735Z 08004KT 07/03 A3042 RMK A01 T00710026  RH  073%=      5-min Rain = 0
KCO1 091736Z 09003KT 07/03 A3042 RMK A01 T00730027  RH  073%=      5-min Rain = 0
KCO1 091737Z 07004KT 07/02 A3041 RMK A01 T00730024  RH  071%=      5-min Rain = 0
KCO1 091738Z 06003KT 08/03 A3041 RMK A01 T00750027  RH  072%=      5-min Rain = 0
KCO1 091739Z 09004KT 08/03 A3042 RMK A01 T00770030  RH  072%=      5-min Rain = 0
KCO1 091740Z 10004KT 08/03 A3041 RMK A01 T00770025  RH  070%=      5-min Rain = 0
KCO1 091741Z 10002KT 08/02 A3041 RMK A01 T00750024  RH  070%=      5-min Rain = 0
KCO1 091742Z 10005KT 08/02 A3041 RMK A01 T00750024  RH  070%=      5-min Rain = 0
KCO1 091743Z 09003KT 08/02 A3041 RMK A01 T00750024  RH  070%=      5-min Rain = 0
KCO1 091744Z 09004KT 08/03 A3041 RMK A01 T00750025  RH  070%=      5-min Rain = 0
KCO1 091745Z 10004KT 08/02 A3041 RMK A01 T00750024  RH  070%=      5-min Rain = 0
KCO1 091746Z 12005KT 08/02 A3041 RMK A01 T00750024  RH  070%=      5-min Rain = 0
KCO1 091747Z 11005KT 07/02 A3041 RMK A01 T00740019  RH  068%=      5-min Rain = 0
KCO1 091748Z 11003KT 07/02 A3041 RMK A01 T00730022  RH  070%=      5-min Rain = 0
KCO1 091749Z 09007KT 08/03 A3041 RMK A01 T00750026  RH  071%=      5-min Rain = 0
KCO1 091750Z 08005KT 08/02 A3041 RMK A01 T00750022  RH  069%=      5-min Rain = 0
KCO1 091751Z 08003KT 07/02 A3041 RMK A01 T00730019  RH  069%=      5-min Rain = 0
KCO1 091752Z 07002KT 07/02 A3041 RMK A01 T00710017  RH  068%=      5-min Rain = 0
KCO1 091753Z 10003KT 07/02 A3041 RMK A01 T00720019  RH  069%=      5-min Rain = 0
KCO1 091754Z 10002KT 07/02 A3041 RMK A01 T00720019  RH  069%=      5-min Rain = 0
KCO1 091755Z 07004KT 07/02 A3041 RMK A01 T00720019  RH  069%=      5-min Rain = 0
KCO1 091756Z 07004KT 07/02 A3041 RMK A01 T00740020  RH  068%=      5-min Rain = 0
KCO1 091757Z 08003KT 07/02 A3041 RMK A01 T00740018  RH  067%=      5-min Rain = 0
KCO1 091758Z 04002KT 08/02 A3041 RMK A01 T00750021  RH  068%=      5-min Rain = 0
KCO1 091759Z 05004KT 08/02 A3041 RMK A01 T00760020  RH  068%=      5-min Rain = 0
KCO1 091800Z 05004KT 08/02 A3041 RMK A01 T00760019  RH  067%=      5-min Rain = 0
KCO1 091801Z 04003KT 08/02 A3041 RMK A01 T00750018  RH  067%=      5-min Rain = 0
KCO1 091802Z 02002KT 08/02 A3041 RMK A01 T00750018  RH  067%=      5-min Rain = 0
KCO1 091803Z 01002KT 08/02 A3041 RMK A01 T00750019  RH  068%=      5-min Rain = 0
KCO1 091804Z 02002KT 08/02 A3041 RMK A01 T00750021  RH  069%=      5-min Rain = 0
KCO1 091805Z 06003KT 08/02 A3041 RMK A01 T00750022  RH  069%=      5-min Rain = 0
KCO1 091806Z 06004KT 08/02 A3041 RMK A01 T00760022  RH  068%=      5-min Rain = 0
KCO1 091807Z 07004KT 08/02 A3041 RMK A01 T00770021  RH  068%=      5-min Rain = 0
KCO1 091808Z 08004KT 08/02 A3041 RMK A01 T00790023  RH  068%=      5-min Rain = 0
KCO1 091809Z 08003KT 08/02 A3041 RMK A01 T00800023  RH  067%=      5-min Rain = 0
KCO1 091810Z 08003KT 08/02 A3041 RMK A01 T00790019  RH  066%=      5-min Rain = 0
KCO1 091811Z 08003KT 08/02 A3041 RMK A01 T00790018  RH  065%=      5-min Rain = 0
KCO1 091812Z 06004KT 08/02 A3041 RMK A01 T00790018  RH  066%=      5-min Rain = 0
KCO1 091813Z 06004KT 08/02 A3041 RMK A01 T00790020  RH  066%=      5-min Rain = 0
KCO1 091814Z 06002KT 08/02 A3041 RMK A01 T00790017  RH  065%=      5-min Rain = 0
KCO1 091815Z 06003KT 08/02 A304 RMK A01 T00780017  RH  065%=      5-min Rain = 0
KCO1 091816Z 08003KT 08/02 A304 RMK A01 T00780015  RH  064%=      5-min Rain = 0
KCO1 091817Z 09002KT 08/02 A304 RMK A01 T00780017  RH  065%=      5-min Rain = 0
KCO1 091818Z 12001KT 08/02 A304 RMK A01 T00790019  RH  066%=      5-min Rain = 0
KCO1 091819Z 12001KT 08/02 A304 RMK A01 T00810021  RH  066%=      5-min Rain = 0
KCO1 091820Z 26001KT 08/02 A304 RMK A01 T00820017  RH  064%=      5-min Rain = 0
KCO1 091821Z 06001KT 08/02 A304 RMK A01 T00830019  RH  064%=      5-min Rain = 0
KCO1 091822Z 09004KT 09/02 A304 RMK A01 T00850023  RH  065%=      5-min Rain = 0
KCO1 091823Z 07003KT 09/02 A304 RMK A01 T00850021  RH  064%=      5-min Rain = 0
KCO1 091824Z 10004KT 09/02 A304 RMK A01 T00850021  RH  064%=      5-min Rain = 0
KCO1 091825Z 08002KT 09/02 A304 RMK A01 T00850020  RH  064%=      5-min Rain = 0
KCO1 091826Z 11001KT 08/02 A304 RMK A01 T00840019  RH  064%=      5-min Rain = 0
KCO1 091827Z 17001KT 08/02 A304 RMK A01 T00840018  RH  063%=      5-min Rain = 0
KCO1 091828Z 20002KT 08/02 A304 RMK A01 T00840018  RH  063%=      5-min Rain = 0
KCO1 091829Z 19002KT 08/02 A304 RMK A01 T00840019  RH  064%=      5-min Rain = 0
KCO1 091830Z 19002KT 09/02 A3039 RMK A01 T00850023  RH  065%=      5-min Rain = 0
KCO1 091831Z 23000KT 09/02 A3039 RMK A01 T00860020  RH  063%=      5-min Rain = 0
KCO1 091832Z 32002KT 09/02 A3039 RMK A01 T00870020  RH  063%=      5-min Rain = 0
KCO1 091833Z 33002KT 09/02 A3039 RMK A01 T00870022  RH  064%=      5-min Rain = 0
KCO1 091834Z 32002KT 09/02 A3039 RMK A01 T00870024  RH  065%=      5-min Rain = 0
KCO1 091835Z 02002KT 09/02 A3039 RMK A01 T00860024  RH  065%=      5-min Rain = 0
KCO1 091836Z 07002KT 09/02 A3039 RMK A01 T00860022  RH  064%=      5-min Rain = 0
KCO1 091837Z 08004KT 09/02 A3039 RMK A01 T00870024  RH  065%=      5-min Rain = 0
KCO1 091838Z 08005KT 09/02 A3039 RMK A01 T00870021  RH  063%=      5-min Rain = 0
KCO1 091839Z 10003KT 09/02 A3039 RMK A01 T00850018  RH  063%=      5-min Rain = 0
KCO1 091840Z 15002KT 09/02 A3039 RMK A01 T00850019  RH  063%=      5-min Rain = 0
KCO1 091841Z 14001KT 09/02 A3039 RMK A01 T00850018  RH  063%=      5-min Rain = 0
KCO1 091842Z 21001KT 09/02 A3039 RMK A01 T00850020  RH  063%=      5-min Rain = 0
KCO1 091843Z 06000KT 09/02 A3038 RMK A01 T00860021  RH  063%=      5-min Rain = 0
KCO1 091844Z 07004KT 09/02 A3038 RMK A01 T00880022  RH  063%=      5-min Rain = 0
KCO1 091845Z 07004KT 09/02 A3038 RMK A01 T00870019  RH  063%=      5-min Rain = 0
KCO1 091846Z 06004KT 09/02 A3038 RMK A01 T00860019  RH  063%=      5-min Rain = 0
KCO1 091847Z 08005KT 09/02 A3038 RMK A01 T00850021  RH  064%=      5-min Rain = 0
KCO1 091848Z 08005KT 09/02 A3038 RMK A01 T00850022  RH  065%=      5-min Rain = 0
KCO1 091849Z 08002KT 09/02 A3038 RMK A01 T00850019  RH  063%=      5-min Rain = 0
KCO1 091850Z 11001KT 08/02 A3038 RMK A01 T00830018  RH  063%=      5-min Rain = 0
KCO1 091851Z 14003KT 08/02 A3038 RMK A01 T00840019  RH  064%=      5-min Rain = 0
KCO1 091852Z 13002KT 09/02 A3038 RMK A01 T00850020  RH  064%=      5-min Rain = 0
KCO1 091853Z 12001KT 09/02 A3038 RMK A01 T00860024  RH  065%=      5-min Rain = 0
KCO1 091854Z 11000KT 09/02 A3038 RMK A01 T00880022  RH  063%=      5-min Rain = 0
KCO1 091855Z 25001KT 09/02 A3038 RMK A01 T00880019  RH  062%=      5-min Rain = 0
KCO1 091856Z 28001KT 09/02 A3038 RMK A01 T00880019  RH  062%=      5-min Rain = 0
KCO1 091857Z 30001KT 09/02 A3038 RMK A01 T00880019  RH  062%=      5-min Rain = 0
KCO1 091858Z 31002KT 09/02 A3038 RMK A01 T00880021  RH  063%=      5-min Rain = 0
KCO1 091859Z 35002KT 09/02 A3038 RMK A01 T00880021  RH  063%=      5-min Rain = 0
KCO1 091900Z 02004KT 09/02 A3038 RMK A01 T00880024  RH  064%=      5-min Rain = 0
KCO1 091901Z 03003KT 09/02 A3038 RMK A01 T00880023  RH  064%=      5-min Rain = 0
KCO1 091902Z 02002KT 09/02 A3038 RMK A01 T00880022  RH  063%=      5-min Rain = 0
KCO1 091903Z 04002KT 09/02 A3038 RMK A01 T00880022  RH  063%=      5-min Rain = 0
KCO1 091904Z 02001KT 09/02 A3037 RMK A01 T00880019  RH  062%=      5-min Rain = 0
KCO1 091905Z 03003KT 09/02 A3037 RMK A01 T00900022  RH  063%=      5-min Rain = 0
KCO1 091906Z 05004KT 09/02 A3037 RMK A01 T00900020  RH  062%=      5-min Rain = 0
KCO1 091907Z 05003KT 09/02 A3037 RMK A01 T00890020  RH  062%=      5-min Rain = 0
KCO1 091908Z 05003KT 09/02 A3037 RMK A01 T00880021  RH  063%=      5-min Rain = 0
KCO1 091909Z 04002KT 09/02 A3037 RMK A01 T00900024  RH  063%=      5-min Rain = 0
KCO1 091910Z 06001KT 09/02 A3037 RMK A01 T00910021  RH  062%=      5-min Rain = 0
KCO1 091911Z 02001KT 09/02 A3037 RMK A01 T00910021  RH  061%=      5-min Rain = 0
KCO1 091912Z 00003KT 09/02 A3037 RMK A01 T00910023  RH  062%=      5-min Rain = 0
KCO1 091913Z 04004KT 09/02 A3037 RMK A01 T00910022  RH  062%=      5-min Rain = 0
KCO1 091914Z 05004KT 09/02 A3037 RMK A01 T00910023  RH  062%=      5-min Rain = 0
KCO1 091915Z 06004KT 09/02 A3037 RMK A01 T00900021  RH  062%=      5-min Rain = 0
KCO1 091916Z 05004KT 09/02 A3037 RMK A01 T00900022  RH  062%=      5-min Rain = 0
KCO1 091917Z 02003KT 09/02 A3037 RMK A01 T00910024  RH  063%=      5-min Rain = 0
KCO1 091918Z 03002KT 09/02 A3037 RMK A01 T00910023  RH  062%=      5-min Rain = 0
KCO1 091919Z 35001KT 09/02 A3037 RMK A01 T00900019  RH  061%=      5-min Rain = 0
KCO1 091920Z 14001KT 09/02 A3037 RMK A01 T00900022  RH  062%=      5-min Rain = 0
KCO1 091921Z 13002KT 09/03 A3037 RMK A01 T00930025  RH  063%=      5-min Rain = 0
KCO1 091922Z 14002KT 10/02 A3037 RMK A01 T00960024  RH  061%=      5-min Rain = 0
KCO1 091923Z 14001KT 10/02 A3037 RMK A01 T00950020  RH  059%=      5-min Rain = 0
KCO1 091924Z 17000KT 10/02 A3037 RMK A01 T00950021  RH  060%=      5-min Rain = 0
KCO1 091925Z 13001KT 10/03 A3037 RMK A01 T00970026  RH  061%=      5-min Rain = 0
KCO1 091926Z 08002KT 10/02 A3037 RMK A01 T00980024  RH  060%=      5-min Rain = 0
KCO1 091927Z 05003KT 10/02 A3037 RMK A01 T00980022  RH  059%=      5-min Rain = 0
KCO1 091928Z 10002KT 10/02 A3037 RMK A01 T00950018  RH  059%=      5-min Rain = 0
KCO1 091929Z 11002KT 09/02 A3037 RMK A01 T00940019  RH  060%=      5-min Rain = 0
KCO1 091930Z 07002KT 09/02 A3037 RMK A01 T00940020  RH  060%=      5-min Rain = 0
KCO1 091931Z 03001KT 09/02 A3037 RMK A01 T00930019  RH  060%=      5-min Rain = 0
KCO1 091932Z 01000KT 09/02 A3037 RMK A01 T00920018  RH  060%=      5-min Rain = 0
KCO1 091933Z 33000KT 09/02 A3036 RMK A01 T00920019  RH  060%=      5-min Rain = 0
KCO1 091934Z 31001KT 09/02 A3036 RMK A01 T00930021  RH  061%=      5-min Rain = 0
KCO1 091935Z 12001KT 09/02 A3036 RMK A01 T00940020  RH  060%=      5-min Rain = 0
KCO1 091936Z 09003KT 10/02 A3036 RMK A01 T00950021  RH  060%=      5-min Rain = 0
KCO1 091937Z 10002KT 10/02 A3036 RMK A01 T00950020  RH  060%=      5-min Rain = 0
KCO1 091938Z 11001KT 10/02 A3036 RMK A01 T00950019  RH  059%=      5-min Rain = 0
KCO1 091939Z 16001KT 09/02 A3036 RMK A01 T00940018  RH  059%=      5-min Rain = 0
KCO1 091940Z 11000KT 09/02 A3036 RMK A01 T00940020  RH  060%=      5-min Rain = 0
KCO1 091941Z 35001KT 09/02 A3036 RMK A01 T00940019  RH  059%=      5-min Rain = 0
KCO1 091942Z 35002KT 09/02 A3036 RMK A01 T00940022  RH  060%=      5-min Rain = 0
KCO1 091943Z 32005KT 10/03 A3036 RMK A01 T00950026  RH  062%=      5-min Rain = 0
KCO1 091944Z 33004KT 10/03 A3036 RMK A01 T00960029  RH  063%=      5-min Rain = 0
KCO1 091945Z 34005KT 10/03 A3036 RMK A01 T00960032  RH  064%=      5-min Rain = 0
KCO1 091946Z 35004KT 10/03 A3036 RMK A01 T00960028  RH  063%=      5-min Rain = 0
KCO1 091947Z 35003KT 10/03 A3036 RMK A01 T00950026  RH  062%=      5-min Rain = 0
KCO1 091948Z 34002KT 09/02 A3036 RMK A01 T00940024  RH  061%=      5-min Rain = 0
KCO1 091949Z 01002KT 09/03 A3036 RMK A01 T00940026  RH  062%=      5-min Rain = 0
KCO1 091950Z 31002KT 10/03 A3036 RMK A01 T00950026  RH  062%=      5-min Rain = 0
KCO1 091951Z 28004KT 10/03 A3036 RMK A01 T00950026  RH  062%=      5-min Rain = 0
KCO1 091952Z 27003KT 10/02 A3036 RMK A01 T00950024  RH  061%=      5-min Rain = 0
KCO1 091953Z 32003KT 10/03 A3036 RMK A01 T00950026  RH  062%=      5-min Rain = 0
KCO1 091954Z 31004KT 09/03 A3036 RMK A01 T00940027  RH  063%=      5-min Rain = 0
KCO1 091955Z 31004KT 09/03 A3036 RMK A01 T00940026  RH  063%=      5-min Rain = 0
KCO1 091956Z 31004KT 10/03 A3035 RMK A01 T00950028  RH  063%=      5-min Rain = 0
KCO1 091957Z 29004KT 10/03 A3035 RMK A01 T00960027  RH  062%=      5-min Rain = 0
KCO1 091958Z 29005KT 10/03 A3035 RMK A01 T00960025  RH  061%=      5-min Rain = 0
KCO1 091959Z 28003KT 10/02 A3035 RMK A01 T00960023  RH  060%=      5-min Rain = 0
KCO1 092000Z 33000KT 10/02 A3035 RMK A01 T00950022  RH  060%=      5-min Rain = 0
KCO1 092001Z 16000KT 10/02 A3035 RMK A01 T00950023  RH  061%=      5-min Rain = 0
KCO1 092002Z 35001KT 10/03 A3035 RMK A01 T00970027  RH  062%=      5-min Rain = 0
KCO1 092003Z 33004KT 10/03 A3035 RMK A01 T00990030  RH  062%=      5-min Rain = 0
KCO1 092004Z 33003KT 10/03 A3035 RMK A01 T01000028  RH  061%=      5-min Rain = 0
KCO1 092005Z 31004KT 10/03 A3035 RMK A01 T01000025  RH  060%=      5-min Rain = 0
KCO1 092006Z 31003KT 10/02 A3035 RMK A01 T00980021  RH  059%=      5-min Rain = 0
KCO1 092007Z 32004KT 10/02 A3035 RMK A01 T00970022  RH  059%=      5-min Rain = 0
KCO1 092008Z 34006KT 10/03 A3035 RMK A01 T00980028  RH  062%=      5-min Rain = 0
KCO1 092009Z 34006KT 10/03 A3035 RMK A01 T00990026  RH  061%=      5-min Rain = 0
KCO1 092010Z 32005KT 10/02 A3035 RMK A01 T00970024  RH  060%=      5-min Rain = 0
KCO1 092011Z 34005KT 10/02 A3035 RMK A01 T00960022  RH  060%=      5-min Rain = 0
KCO1 092012Z 35005KT 10/03 A3035 RMK A01 T00960026  RH  062%=      5-min Rain = 0
KCO1 092013Z 36004KT 10/02 A3035 RMK A01 T00960023  RH  060%=      5-min Rain = 0
KCO1 092014Z 01003KT 10/02 A3035 RMK A01 T00960024  RH  061%=      5-min Rain = 0
KCO1 092015Z 36004KT 10/03 A3035 RMK A01 T00980025  RH  060%=      5-min Rain = 0
KCO1 092016Z 02003KT 10/03 A3035 RMK A01 T00990026  RH  060%=      5-min Rain = 0
KCO1 092017Z 36003KT 10/02 A3035 RMK A01 T01000023  RH  059%=      5-min Rain = 0
KCO1 092018Z 34003KT 10/02 A3035 RMK A01 T01000023  RH  059%=      5-min Rain = 0
KCO1 092019Z 33001KT 10/03 A3035 RMK A01 T00990025  RH  060%=      5-min Rain = 0
KCO1 092020Z 02002KT 10/03 A3035 RMK A01 T01000027  RH  060%=      5-min Rain = 0
KCO1 092021Z 02003KT 10/03 A3035 RMK A01 T01010025  RH  059%=      5-min Rain = 0
KCO1 092022Z 36004KT 10/02 A3035 RMK A01 T01010024  RH  059%=      5-min Rain = 0
KCO1 092023Z 35005KT 10/03 A3035 RMK A01 T01000025  RH  059%=      5-min Rain = 0
KCO1 092024Z 35005KT 10/03 A3035 RMK A01 T01000028  RH  061%=      5-min Rain = 0
KCO1 092025Z 33005KT 10/03 A3035 RMK A01 T01000028  RH  061%=      5-min Rain = 0
KCO1 092026Z 35003KT 10/02 A3035 RMK A01 T00980024  RH  060%=      5-min Rain = 0
KCO1 092027Z 32004KT 10/02 A3035 RMK A01 T00960023  RH  060%=      5-min Rain = 0
KCO1 092028Z 32003KT 10/02 A3035 RMK A01 T00950024  RH  061%=      5-min Rain = 0
KCO1 092029Z 33002KT 09/02 A3035 RMK A01 T00940021  RH  060%=      5-min Rain = 0
KCO1 092030Z 32004KT 09/02 A3035 RMK A01 T00930021  RH  061%=      5-min Rain = 0
KCO1 092031Z 32003KT 09/02 A3035 RMK A01 T00940024  RH  062%=      5-min Rain = 0
KCO1 092032Z 31002KT 10/02 A3035 RMK A01 T00950022  RH  060%=      5-min Rain = 0
KCO1 092033Z 33003KT 10/02 A3035 RMK A01 T00960024  RH  061%=      5-min Rain = 0
KCO1 092034Z 32002KT 10/03 A3035 RMK A01 T00980025  RH  060%=      5-min Rain = 0
KCO1 092035Z 32002KT 10/02 A3035 RMK A01 T00990023  RH  059%=      5-min Rain = 0
KCO1 092036Z 27002KT 10/02 A3035 RMK A01 T01000024  RH  059%=      5-min Rain = 0
KCO1 092037Z 23002KT 10/03 A3035 RMK A01 T01020027  RH  059%=      5-min Rain = 0
KCO1 092038Z 21002KT 11/03 A3035 RMK A01 T01050028  RH  059%=      5-min Rain = 0
KCO1 092039Z 26002KT 11/03 A3035 RMK A01 T01060026  RH  058%=      5-min Rain = 0
KCO1 092040Z 30004KT 11/03 A3035 RMK A01 T01070030  RH  059%=      5-min Rain = 0
KCO1 092041Z 32005KT 11/03 A3034 RMK A01 T01080030  RH  059%=      5-min Rain = 0
KCO1 092042Z 29005KT 11/03 A3034 RMK A01 T01050027  RH  058%=      5-min Rain = 0
KCO1 092043Z 29004KT 10/03 A3034 RMK A01 T01040026  RH  058%=      5-min Rain = 0
KCO1 092044Z 33003KT 10/03 A3034 RMK A01 T01040027  RH  059%=      5-min Rain = 0
KCO1 092045Z 32001KT 11/03 A3034 RMK A01 T01050028  RH  059%=      5-min Rain = 0
KCO1 092046Z 19002KT 11/03 A3034 RMK A01 T01050027  RH  059%=      5-min Rain = 0
KCO1 092047Z 16001KT 11/03 A3034 RMK A01 T01050026  RH  058%=      5-min Rain = 0
KCO1 092048Z 30003KT 11/03 A3034 RMK A01 T01070030  RH  059%=      5-min Rain = 0
KCO1 092049Z 32003KT 11/03 A3034 RMK A01 T01090034  RH  060%=      5-min Rain = 0
KCO1 092050Z 33005KT 11/03 A3034 RMK A01 T01090031  RH  059%=      5-min Rain = 0
KCO1 092051Z 33005KT 11/03 A3034 RMK A01 T01060029  RH  059%=      5-min Rain = 0
KCO1 092052Z 32004KT 10/03 A3034 RMK A01 T01040030  RH  060%=      5-min Rain = 0
KCO1 092053Z 32001KT 10/03 A3034 RMK A01 T01020027  RH  060%=      5-min Rain = 0
KCO1 092054Z 28001KT 10/03 A3034 RMK A01 T01030029  RH  060%=      5-min Rain = 0
KCO1 092055Z 30002KT 11/03 A3034 RMK A01 T01050030  RH  060%=      5-min Rain = 0
KCO1 092056Z 30004KT 11/03 A3034 RMK A01 T01070030  RH  059%=      5-min Rain = 0
KCO1 092057Z 30004KT 11/03 A3034 RMK A01 T01070025  RH  057%=      5-min Rain = 0
KCO1 092058Z 30004KT 11/02 A3034 RMK A01 T01050024  RH  057%=      5-min Rain = 0
KCO1 092059Z 33003KT 11/02 A3034 RMK A01 T01050024  RH  057%=      5-min Rain = 0
KCO1 092100Z 34003KT 11/02 A3034 RMK A01 T01050024  RH  058%=      5-min Rain = 0
KCO1 092101Z 34003KT 11/03 A3034 RMK A01 T01050028  RH  059%=      5-min Rain = 0
KCO1 092102Z 34004KT 11/03 A3034 RMK A01 T01060030  RH  059%=      5-min Rain = 0
KCO1 092103Z 33004KT 11/03 A3034 RMK A01 T01060026  RH  058%=      5-min Rain = 0
KCO1 092104Z 31003KT 11/03 A3034 RMK A01 T01050029  RH  059%=      5-min Rain = 0
KCO1 092105Z 30002KT 10/03 A3034 RMK A01 T01040026  RH  058%=      5-min Rain = 0
KCO1 092106Z 01002KT 11/03 A3034 RMK A01 T01050028  RH  059%=      5-min Rain = 0
KCO1 092107Z 01005KT 11/03 A3034 RMK A01 T01070029  RH  059%=      5-min Rain = 0
KCO1 092108Z 02003KT 11/02 A3034 RMK A01 T01050024  RH  057%=      5-min Rain = 0
KCO1 092109Z 34003KT 10/02 A3034 RMK A01 T01030023  RH  058%=      5-min Rain = 0
KCO1 092110Z 36002KT 10/02 A3034 RMK A01 T01030024  RH  058%=      5-min Rain = 0
KCO1 092111Z 33001KT 10/03 A3034 RMK A01 T01040025  RH  058%=      5-min Rain = 0
KCO1 092112Z 32003KT 10/03 A3034 RMK A01 T01040025  RH  058%=      5-min Rain = 0
KCO1 092113Z 31002KT 10/02 A3034 RMK A01 T01030023  RH  058%=      5-min Rain = 0
KCO1 092114Z 27003KT 10/02 A3034 RMK A01 T01030023  RH  058%=      5-min Rain = 0
KCO1 092115Z 27001KT 10/02 A3034 RMK A01 T01030022  RH  057%=      5-min Rain = 0
KCO1 092116Z 20002KT 10/02 A3034 RMK A01 T01020022  RH  058%=      5-min Rain = 0
KCO1 092117Z 19001KT 10/02 A3034 RMK A01 T01020024  RH  058%=      5-min Rain = 0
KCO1 092118Z 00000KT 10/02 A3034 RMK A01 T01040023  RH  057%=      5-min Rain = 0
KCO1 092119Z 26000KT 11/02 A3034 RMK A01 T01050024  RH  057%=      5-min Rain = 0
KCO1 092120Z 32001KT 11/02 A3034 RMK A01 T01060023  RH  056%=      5-min Rain = 0
KCO1 092121Z 33002KT 11/02 A3034 RMK A01 T01060023  RH  056%=      5-min Rain = 0
KCO1 092122Z 31002KT 11/03 A3034 RMK A01 T01060025  RH  057%=      5-min Rain = 0
KCO1 092123Z 31004KT 11/03 A3034 RMK A01 T01060025  RH  057%=      5-min Rain = 0
KCO1 092124Z 30002KT 11/03 A3034 RMK A01 T01060026  RH  057%=      5-min Rain = 0
KCO1 092125Z 32004KT 11/03 A3034 RMK A01 T01070026  RH  057%=      5-min Rain = 0
KCO1 092126Z 33005KT 11/03 A3034 RMK A01 T01070029  RH  059%=      5-min Rain = 0
KCO1 092127Z 32004KT 11/03 A3034 RMK A01 T01060026  RH  058%=      5-min Rain = 0
KCO1 092128Z 32004KT 11/03 A3034 RMK A01 T01050029  RH  059%=      5-min Rain = 0
KCO1 092129Z 30003KT 11/03 A3034 RMK A01 T01050028  RH  059%=      5-min Rain = 0
KCO1 092130Z 28001KT 11/03 A3034 RMK A01 T01060025  RH  057%=      5-min Rain = 0
KCO1 092131Z 15001KT 11/03 A3034 RMK A01 T01050025  RH  057%=      5-min Rain = 0
KCO1 092132Z 13001KT 11/03 A3034 RMK A01 T01070026  RH  058%=      5-min Rain = 0
KCO1 092133Z 20001KT 11/03 A3033 RMK A01 T01090025  RH  056%=      5-min Rain = 0
KCO1 092134Z 27001KT 11/02 A3033 RMK A01 T01090023  RH  055%=      5-min Rain = 0
KCO1 092135Z 32002KT 11/03 A3033 RMK A01 T01100026  RH  056%=      5-min Rain = 0
KCO1 092136Z 32003KT 11/03 A3033 RMK A01 T01100026  RH  056%=      5-min Rain = 0
KCO1 092137Z 32005KT 11/03 A3033 RMK A01 T01090027  RH  057%=      5-min Rain = 0
KCO1 092138Z 33005KT 11/03 A3033 RMK A01 T01080029  RH  058%=      5-min Rain = 0
KCO1 092139Z 34005KT 11/03 A3033 RMK A01 T01080031  RH  059%=      5-min Rain = 0
KCO1 092140Z 30006KT 11/03 A3033 RMK A01 T01080031  RH  059%=      5-min Rain = 0
KCO1 092141Z 32006KT 11/03 A3033 RMK A01 T01080031  RH  059%=      5-min Rain = 0
KCO1 092142Z 33006KT 11/03 A3033 RMK A01 T01080031  RH  059%=      5-min Rain = 0
KCO1 092143Z 34006KT 11/03 A3033 RMK A01 T01080033  RH  060%=      5-min Rain = 0
KCO1 092144Z 34004KT 11/03 A3034 RMK A01 T01070031  RH  059%=      5-min Rain = 0
KCO1 092145Z 33005KT 11/03 A3034 RMK A01 T01050026  RH  058%=      5-min Rain = 0
KCO1 092146Z 34004KT 10/03 A3033 RMK A01 T01040028  RH  059%=      5-min Rain = 0
KCO1 092147Z 34006KT 11/03 A3033 RMK A01 T01050032  RH  060%=      5-min Rain = 0
KCO1 092148Z 33005KT 11/03 A3033 RMK A01 T01050029  RH  059%=      5-min Rain = 0
KCO1 092149Z 35005KT 11/03 A3033 RMK A01 T01050031  RH  060%=      5-min Rain = 0
KCO1 092150Z 35004KT 11/03 A3033 RMK A01 T01050029  RH  059%=      5-min Rain = 0
KCO1 092151Z 31005KT 11/03 A3033 RMK A01 T01050033  RH  061%=      5-min Rain = 0
KCO1 092152Z 31005KT 11/03 A3033 RMK A01 T01070030  RH  059%=      5-min Rain = 0
KCO1 092153Z 30004KT 11/03 A3033 RMK A01 T01070029  RH  058%=      5-min Rain = 0
KCO1 092154Z 30003KT 11/03 A3033 RMK A01 T01070028  RH  058%=      5-min Rain = 0
KCO1 092155Z 31004KT 11/03 A3033 RMK A01 T01080029  RH  058%=      5-min Rain = 0
KCO1 092156Z 34004KT 11/03 A3033 RMK A01 T01090031  RH  059%=      5-min Rain = 0
KCO1 092157Z 34003KT 11/03 A3033 RMK A01 T01090027  RH  057%=      5-min Rain = 0
KCO1 092158Z 35002KT 11/03 A3033 RMK A01 T01080025  RH  057%=      5-min Rain = 0
KCO1 092159Z 34003KT 11/03 A3033 RMK A01 T01080026  RH  057%=      5-min Rain = 0
KCO1 092200Z 34003KT 11/03 A3033 RMK A01 T01080030  RH  058%=      5-min Rain = 0
KCO1 092201Z 34002KT 11/03 A3033 RMK A01 T01080026  RH  057%=      5-min Rain = 0
KCO1 092202Z 34001KT 11/02 A3033 RMK A01 T01070023  RH  056%=      5-min Rain = 0
KCO1 092203Z 34004KT 11/03 A3033 RMK A01 T01070025  RH  057%=      5-min Rain = 0
KCO1 092204Z 33004KT 11/03 A3033 RMK A01 T01070026  RH  057%=      5-min Rain = 0
KCO1 092205Z 34007KT 11/03 A3033 RMK A01 T01070025  RH  057%=      5-min Rain = 0
KCO1 092206Z 33005KT 11/03 A3033 RMK A01 T01060025  RH  057%=      5-min Rain = 0
KCO1 092207Z 35005KT 11/03 A3033 RMK A01 T01050028  RH  059%=      5-min Rain = 0
KCO1 092208Z 35004KT 11/03 A3033 RMK A01 T01050026  RH  058%=      5-min Rain = 0
KCO1 092209Z 36006KT 11/03 A3033 RMK A01 T01050028  RH  059%=      5-min Rain = 0
KCO1 092210Z 36005KT 11/03 A3033 RMK A01 T01050029  RH  059%=      5-min Rain = 0
KCO1 092211Z 01004KT 11/03 A3033 RMK A01 T01060029  RH  059%=      5-min Rain = 0
KCO1 092212Z 36004KT 11/03 A3033 RMK A01 T01060027  RH  058%=      5-min Rain = 0
KCO1 092213Z 34004KT 11/03 A3033 RMK A01 T01050028  RH  059%=      5-min Rain = 0
KCO1 092214Z 33004KT 11/03 A3033 RMK A01 T01050032  RH  061%=      5-min Rain = 0
KCO1 092215Z 33005KT 11/03 A3033 RMK A01 T01060032  RH  060%=      5-min Rain = 0
KCO1 092216Z 31004KT 11/03 A3033 RMK A01 T01060030  RH  059%=      5-min Rain = 0
KCO1 092217Z 30003KT 11/03 A3033 RMK A01 T01050028  RH  059%=      5-min Rain = 0
KCO1 092218Z 34003KT 11/03 A3033 RMK A01 T01060031  RH  059%=      5-min Rain = 0
KCO1 092219Z 32002KT 11/03 A3033 RMK A01 T01070028  RH  058%=      5-min Rain = 0
KCO1 092220Z 31002KT 11/03 A3033 RMK A01 T01070028  RH  058%=      5-min Rain = 0
KCO1 092221Z 31004KT 11/03 A3033 RMK A01 T01080030  RH  059%=      5-min Rain = 0
KCO1 092222Z 31002KT 11/03 A3033 RMK A01 T01080028  RH  058%=      5-min Rain = 0
KCO1 092223Z 32004KT 11/03 A3033 RMK A01 T01070029  RH  058%=      5-min Rain = 0
KCO1 092224Z 31004KT 11/03 A3033 RMK A01 T01080031  RH  059%=      5-min Rain = 0
KCO1 092225Z 32005KT 11/03 A3033 RMK A01 T01070028  RH  058%=      5-min Rain = 0
KCO1 092226Z 32005KT 11/03 A3033 RMK A01 T01060028  RH  058%=      5-min Rain = 0
KCO1 092227Z 32005KT 11/03 A3033 RMK A01 T01050029  RH  059%=      5-min Rain = 0
KCO1 092228Z 33006KT 11/03 A3033 RMK A01 T01050029  RH  059%=      5-min Rain = 0
KCO1 092229Z 32005KT 11/03 A3033 RMK A01 T01060031  RH  060%=      5-min Rain = 0
KCO1 092230Z 32004KT 11/03 A3033 RMK A01 T01050029  RH  059%=      5-min Rain = 0
KCO1 092231Z 33004KT 11/03 A3033 RMK A01 T01060031  RH  060%=      5-min Rain = 0
KCO1 092232Z 34005KT 11/03 A3033 RMK A01 T01060033  RH  061%=      5-min Rain = 0
KCO1 092233Z 34004KT 11/03 A3033 RMK A01 T01060028  RH  059%=      5-min Rain = 0
KCO1 092234Z 34004KT 11/03 A3033 RMK A01 T01050028  RH  059%=      5-min Rain = 0
KCO1 092235Z 33004KT 11/03 A3033 RMK A01 T01050029  RH  059%=      5-min Rain = 0
KCO1 092236Z 34003KT 11/03 A3033 RMK A01 T01050029  RH  060%=      5-min Rain = 0
KCO1 092237Z 00003KT 11/03 A3033 RMK A01 T01050028  RH  059%=      5-min Rain = 0
KCO1 092238Z 35003KT 10/03 A3033 RMK A01 T01040027  RH  059%=      5-min Rain = 0
KCO1 092239Z 00002KT 10/03 A3033 RMK A01 T01040026  RH  058%=      5-min Rain = 0
KCO1 092240Z 33002KT 10/03 A3033 RMK A01 T01040029  RH  059%=      5-min Rain = 0
KCO1 092241Z 32002KT 11/03 A3033 RMK A01 T01050029  RH  059%=      5-min Rain = 0
KCO1 092242Z 35002KT 11/03 A3033 RMK A01 T01050027  RH  058%=      5-min Rain = 0
KCO1 092243Z 36003KT 11/03 A3033 RMK A01 T01050029  RH  059%=      5-min Rain = 0
KCO1 092244Z 35003KT 11/03 A3033 RMK A01 T01060029  RH  059%=      5-min Rain = 0
KCO1 092245Z 33004KT 11/03 A3033 RMK A01 T01060029  RH  059%=      5-min Rain = 0
KCO1 092246Z 35006KT 11/03 A3033 RMK A01 T01060030  RH  060%=      5-min Rain = 0
KCO1 092247Z 35006KT 11/03 A3033 RMK A01 T01050027  RH  059%=      5-min Rain = 0
KCO1 092248Z 36005KT 11/03 A3033 RMK A01 T01050027  RH  059%=      5-min Rain = 0
KCO1 092249Z 34004KT 10/03 A3033 RMK A01 T01040028  RH  059%=      5-min Rain = 0
KCO1 092250Z 33005KT 11/03 A3033 RMK A01 T01050030  RH  060%=      5-min Rain = 0
KCO1 092251Z 33006KT 10/03 A3033 RMK A01 T01040028  RH  059%=      5-min Rain = 0
KCO1 092252Z 34006KT 10/03 A3033 RMK A01 T01040029  RH  060%=      5-min Rain = 0
KCO1 092253Z 33006KT 10/03 A3033 RMK A01 T01040029  RH  059%=      5-min Rain = 0
KCO1 092254Z 35006KT 10/03 A3033 RMK A01 T01040028  RH  059%=      5-min Rain = 0
KCO1 092255Z 35005KT 10/03 A3033 RMK A01 T01040026  RH  059%=      5-min Rain = 0
KCO1 092256Z 34005KT 10/03 A3033 RMK A01 T01040029  RH  060%=      5-min Rain = 0
KCO1 092257Z 33005KT 10/03 A3033 RMK A01 T01040030  RH  060%=      5-min Rain = 0
KCO1 092258Z 33006KT 10/03 A3033 RMK A01 T01040029  RH  060%=      5-min Rain = 0
KCO1 092259Z 33005KT 10/03 A3033 RMK A01 T01030028  RH  059%=      5-min Rain = 0
KCO1 092300Z 33005KT 10/03 A3033 RMK A01 T01030027  RH  059%=      5-min Rain = 0
KCO1 092301Z 33005KT 10/03 A3033 RMK A01 T01030028  RH  060%=      5-min Rain = 0
KCO1 092302Z 34004KT 10/03 A3033 RMK A01 T01030030  RH  060%=      5-min Rain = 0
KCO1 092303Z 35004KT 10/03 A3033 RMK A01 T01030027  RH  059%=      5-min Rain = 0
KCO1 092304Z 34004KT 10/03 A3033 RMK A01 T01020026  RH  059%=      5-min Rain = 0
KCO1 092305Z 32005KT 10/03 A3033 RMK A01 T01020030  RH  061%=      5-min Rain = 0
KCO1 092306Z 32006KT 10/03 A3033 RMK A01 T01020028  RH  060%=      5-min Rain = 0
KCO1 092307Z 32005KT 10/03 A3033 RMK A01 T01020027  RH  060%=      5-min Rain = 0
KCO1 092308Z 32005KT 10/03 A3033 RMK A01 T01010028  RH  060%=      5-min Rain = 0
KCO1 092309Z 33004KT 10/03 A3033 RMK A01 T01010029  RH  061%=      5-min Rain = 0
KCO1 092310Z 32005KT 10/03 A3033 RMK A01 T01010029  RH  061%=      5-min Rain = 0
KCO1 092311Z 32004KT 10/03 A3033 RMK A01 T01010029  RH  061%=      5-min Rain = 0
KCO1 092312Z 32005KT 10/03 A3033 RMK A01 T01010028  RH  061%=      5-min Rain = 0
KCO1 092313Z 32005KT 10/03 A3033 RMK A01 T01000030  RH  061%=      5-min Rain = 0
KCO1 092314Z 32004KT 10/03 A3033 RMK A01 T01000030  RH  061%=      5-min Rain = 0
KCO1 092315Z 32004KT 10/03 A3033 RMK A01 T01000029  RH  062%=      5-min Rain = 0
KCO1 092316Z 33005KT 10/03 A3033 RMK A01 T01000030  RH  062%=      5-min Rain = 0
KCO1 092317Z 33004KT 10/03 A3033 RMK A01 T01000030  RH  062%=      5-min Rain = 0
KCO1 092318Z 33003KT 10/03 A3033 RMK A01 T00990029  RH  062%=      5-min Rain = 0
KCO1 092319Z 33004KT 10/03 A3033 RMK A01 T00990029  RH  061%=      5-min Rain = 0
KCO1 092320Z 33004KT 10/03 A3033 RMK A01 T00990028  RH  061%=      5-min Rain = 0
KCO1 092321Z 33003KT 10/03 A3033 RMK A01 T00990027  RH  061%=      5-min Rain = 0
KCO1 092322Z 31003KT 10/03 A3033 RMK A01 T00990027  RH  061%=      5-min Rain = 0
KCO1 092323Z 32002KT 10/03 A3033 RMK A01 T00980030  RH  062%=      5-min Rain = 0
KCO1 092324Z 31002KT 10/03 A3033 RMK A01 T00980029  RH  062%=      5-min Rain = 0
KCO1 092325Z 31003KT 10/03 A3033 RMK A01 T00980027  RH  061%=      5-min Rain = 0
KCO1 092326Z 32004KT 10/03 A3033 RMK A01 T00980029  RH  062%=      5-min Rain = 0
KCO1 092327Z 33003KT 10/03 A3033 RMK A01 T00970032  RH  064%=      5-min Rain = 0
KCO1 092328Z 33003KT 10/03 A3033 RMK A01 T00970033  RH  064%=      5-min Rain = 0
KCO1 092329Z 33004KT 10/03 A3033 RMK A01 T00960033  RH  065%=      5-min Rain = 0
KCO1 092330Z 33004KT 10/03 A3033 RMK A01 T00960032  RH  064%=      5-min Rain = 0
KCO1 092331Z 33004KT 10/03 A3033 RMK A01 T00950032  RH  065%=      5-min Rain = 0
KCO1 092332Z 33004KT 10/03 A3033 RMK A01 T00950033  RH  065%=      5-min Rain = 0
KCO1 092333Z 33004KT 09/03 A3034 RMK A01 T00940032  RH  065%=      5-min Rain = 0
KCO1 092334Z 33004KT 09/03 A3034 RMK A01 T00940033  RH  066%=      5-min Rain = 0
KCO1 092335Z 33004KT 09/04 A3034 RMK A01 T00930035  RH  067%=      5-min Rain = 0
KCO1 092336Z 32003KT 09/04 A3034 RMK A01 T00920035  RH  067%=      5-min Rain = 0
KCO1 092337Z 32003KT 09/03 A3034 RMK A01 T00910032  RH  067%=      5-min Rain = 0
KCO1 092338Z 32003KT 09/03 A3034 RMK A01 T00900031  RH  066%=      5-min Rain = 0
KCO1 092339Z 32003KT 09/03 A3034 RMK A01 T00900031  RH  066%=      5-min Rain = 0
KCO1 092340Z 32003KT 09/03 A3034 RMK A01 T00900032  RH  067%=      5-min Rain = 0
KCO1 092341Z 32003KT 09/03 A3034 RMK A01 T00890032  RH  067%=      5-min Rain = 0
KCO1 092342Z 32004KT 09/03 A3034 RMK A01 T00890032  RH  068%=      5-min Rain = 0
KCO1 092343Z 32003KT 09/03 A3034 RMK A01 T00880032  RH  068%=      5-min Rain = 0
KCO1 092344Z 33003KT 09/03 A3034 RMK A01 T00880034  RH  069%=      5-min Rain = 0
KCO1 092345Z 33003KT 09/04 A3034 RMK A01 T00880035  RH  069%=      5-min Rain = 0
KCO1 092346Z 33003KT 09/04 A3034 RMK A01 T00880035  RH  070%=      5-min Rain = 0
KCO1 092347Z 32003KT 09/04 A3034 RMK A01 T00870035  RH  070%=      5-min Rain = 0
KCO1 092348Z 33002KT 09/04 A3034 RMK A01 T00870035  RH  070%=      5-min Rain = 0
KCO1 092349Z 33003KT 09/04 A3034 RMK A01 T00870037  RH  071%=      5-min Rain = 0
KCO1 092350Z 33003KT 09/04 A3034 RMK A01 T00860035  RH  071%=      5-min Rain = 0
KCO1 092351Z 33002KT 09/03 A3034 RMK A01 T00850034  RH  071%=      5-min Rain = 0
KCO1 092352Z 33002KT 08/03 A3034 RMK A01 T00830033  RH  070%=      5-min Rain = 0
KCO1 092353Z 33002KT 08/03 A3034 RMK A01 T00830033  RH  070%=      5-min Rain = 0
KCO1 092354Z 32002KT 08/03 A3034 RMK A01 T00830032  RH  071%=      5-min Rain = 0
KCO1 092355Z 32002KT 08/03 A3034 RMK A01 T00820033  RH  071%=      5-min Rain = 0
KCO1 092356Z 31002KT 08/04 A3034 RMK A01 T00820036  RH  073%=      5-min Rain = 0
KCO1 092357Z 31003KT 08/04 A3034 RMK A01 T00810035  RH  073%=      5-min Rain = 0
KCO1 092358Z 31003KT 08/03 A3034 RMK A01 T00800031  RH  071%=      5-min Rain = 0
KCO1 092359Z 31003KT 08/03 A3034 RMK A01 T00800030  RH  071%=      5-min Rain = 0
KCO1 100000Z 31003KT 08/03 A3034 RMK A01 T00800030  RH  071%=      5-min Rain = 0
KCO1 100001Z 31003KT 08/03 A3034 RMK A01 T00800030  RH  071%=      5-min Rain = 0
KCO1 100002Z 31003KT 08/03 A3034 RMK A01 T00800031  RH  071%=      5-min Rain = 0
KCO1 100003Z 31003KT 08/03 A3034 RMK A01 T00790030  RH  071%=      5-min Rain = 0
KCO1 100004Z 31003KT 08/03 A3034 RMK A01 T00790030  RH  071%=      5-min Rain = 0
KCO1 100005Z 31003KT 08/03 A3034 RMK A01 T00790030  RH  071%=      5-min Rain = 0
KCO1 100006Z 31003KT 08/03 A3034 RMK A01 T00790031  RH  072%=      5-min Rain = 0
KCO1 100007Z 31003KT 08/03 A3034 RMK A01 T00780031  RH  072%=      5-min Rain = 0
KCO1 100008Z 31003KT 08/03 A3034 RMK A01 T00770031  RH  072%=      5-min Rain = 0
KCO1 100009Z 31003KT 08/03 A3034 RMK A01 T00760031  RH  073%=      5-min Rain = 0
KCO1 100010Z 31003KT 08/03 A3034 RMK A01 T00750032  RH  074%=      5-min Rain = 0
KCO1 100011Z 31003KT 08/03 A3034 RMK A01 T00750032  RH  074%=      5-min Rain = 0
KCO1 100012Z 31003KT 07/03 A3034 RMK A01 T00740032  RH  074%=      5-min Rain = 0
KCO1 100013Z 31003KT 07/03 A3034 RMK A01 T00740032  RH  075%=      5-min Rain = 0
KCO1 100014Z 31002KT 07/03 A3034 RMK A01 T00740031  RH  074%=      5-min Rain = 0
KCO1 100015Z 31002KT 07/03 A3034 RMK A01 T00730030  RH  074%=      5-min Rain = 0
KCO1 100016Z 31002KT 07/03 A3034 RMK A01 T00720030  RH  074%=      5-min Rain = 0
KCO1 100017Z 31002KT 07/03 A3034 RMK A01 T00720030  RH  075%=      5-min Rain = 0
KCO1 100018Z 31002KT 07/03 A3034 RMK A01 T00710031  RH  076%=      5-min Rain = 0
KCO1 100019Z 31002KT 07/03 A3034 RMK A01 T00710032  RH  076%=      5-min Rain = 0
KCO1 100020Z 31002KT 07/03 A3034 RMK A01 T00710033  RH  077%=      5-min Rain = 0
KCO1 100021Z 31002KT 07/03 A3034 RMK A01 T00700034  RH  078%=      5-min Rain = 0
KCO1 100022Z 31002KT 07/03 A3034 RMK A01 T00700034  RH  078%=      5-min Rain = 0
KCO1 100023Z 30002KT 07/03 A3035 RMK A01 T00690033  RH  077%=      5-min Rain = 0
KCO1 100024Z 30003KT 07/03 A3035 RMK A01 T00690031  RH  077%=      5-min Rain = 0
KCO1 100025Z 30003KT 07/03 A3035 RMK A01 T00680031  RH  077%=      5-min Rain = 0
KCO1 100026Z 29003KT 07/03 A3035 RMK A01 T00680031  RH  077%=      5-min Rain = 0
KCO1 100027Z 29003KT 07/03 A3035 RMK A01 T00680032  RH  078%=      5-min Rain = 0
KCO1 100028Z 30002KT 07/03 A3035 RMK A01 T00680032  RH  078%=      5-min Rain = 0
KCO1 100029Z 30002KT 07/03 A3035 RMK A01 T00690032  RH  078%=      5-min Rain = 0
KCO1 100030Z 30002KT 07/03 A3035 RMK A01 T00680032  RH  078%=      5-min Rain = 0
KCO1 100031Z 30002KT 07/03 A3035 RMK A01 T00680031  RH  077%=      5-min Rain = 0
KCO1 100032Z 30002KT 07/03 A3035 RMK A01 T00670030  RH  077%=      5-min Rain = 0
KCO1 100033Z 30002KT 07/03 A3035 RMK A01 T00680030  RH  077%=      5-min Rain = 0
KCO1 100034Z 30002KT 07/03 A3035 RMK A01 T00670030  RH  077%=      5-min Rain = 0
KCO1 100035Z 30002KT 07/03 A3035 RMK A01 T00660030  RH  078%=      5-min Rain = 0
KCO1 100036Z 30002KT 07/03 A3035 RMK A01 T00660030  RH  078%=      5-min Rain = 0
KCO1 100037Z 30002KT 07/03 A3035 RMK A01 T00650030  RH  078%=      5-min Rain = 0
KCO1 100038Z 30002KT 07/03 A3035 RMK A01 T00650030  RH  078%=      5-min Rain = 0
KCO1 100039Z 30002KT 06/03 A3035 RMK A01 T00640029  RH  078%=      5-min Rain = 0
KCO1 100040Z 30002KT 06/03 A3035 RMK A01 T00640030  RH  079%=      5-min Rain = 0
KCO1 100041Z 30002KT 06/03 A3035 RMK A01 T00630030  RH  079%=      5-min Rain = 0
KCO1 100042Z 30002KT 06/03 A3035 RMK A01 T00630031  RH  079%=      5-min Rain = 0
KCO1 100043Z 30002KT 06/03 A3035 RMK A01 T00630031  RH  080%=      5-min Rain = 0
KCO1 100044Z 30002KT 06/03 A3035 RMK A01 T00630030  RH  080%=      5-min Rain = 0
KCO1 100045Z 29002KT 06/03 A3035 RMK A01 T00620030  RH  080%=      5-min Rain = 0
KCO1 100046Z 29003KT 06/03 A3035 RMK A01 T00620030  RH  080%=      5-min Rain = 0
KCO1 100047Z 29003KT 06/03 A3035 RMK A01 T00630031  RH  080%=      5-min Rain = 0
KCO1 100048Z 29002KT 06/03 A3035 RMK A01 T00630032  RH  080%=      5-min Rain = 0
KCO1 100049Z 29002KT 06/03 A3035 RMK A01 T00640031  RH  080%=      5-min Rain = 0
KCO1 100050Z 29002KT 07/03 A3035 RMK A01 T00650031  RH  079%=      5-min Rain = 0
KCO1 100051Z 29003KT 07/03 A3035 RMK A01 T00660032  RH  079%=      5-min Rain = 0
KCO1 100052Z 29003KT 07/03 A3035 RMK A01 T00660031  RH  078%=      5-min Rain = 0
KCO1 100053Z 28003KT 07/03 A3035 RMK A01 T00660030  RH  078%=      5-min Rain = 0
KCO1 100054Z 28003KT 07/03 A3035 RMK A01 T00660030  RH  077%=      5-min Rain = 0
KCO1 100055Z 28003KT 07/03 A3035 RMK A01 T00670030  RH  077%=      5-min Rain = 0
KCO1 100056Z 28003KT 07/03 A3035 RMK A01 T00680030  RH  077%=      5-min Rain = 0
KCO1 100057Z 28003KT 07/03 A3035 RMK A01 T00680030  RH  077%=      5-min Rain = 0
KCO1 100058Z 28003KT 07/03 A3036 RMK A01 T00680030  RH  077%=      5-min Rain = 0
KCO1 100059Z 28003KT 07/03 A3036 RMK A01 T00680030  RH  077%=      5-min Rain = 0
KCO1 100100Z 28004KT 07/03 A3036 RMK A01 T00680030  RH  077%=      5-min Rain = 0
KCO1 100101Z 28004KT 07/03 A3036 RMK A01 T00680031  RH  077%=      5-min Rain = 0
KCO1 100102Z 28004KT 07/03 A3036 RMK A01 T00680031  RH  077%=      5-min Rain = 0
KCO1 100103Z 29004KT 07/03 A3036 RMK A01 T00670031  RH  078%=      5-min Rain = 0
KCO1 100104Z 29004KT 07/03 A3036 RMK A01 T00660030  RH  078%=      5-min Rain = 0
KCO1 100105Z 29004KT 07/03 A3036 RMK A01 T00660031  RH  078%=      5-min Rain = 0
KCO1 100106Z 29004KT 07/03 A3036 RMK A01 T00650030  RH  078%=      5-min Rain = 0
KCO1 100107Z 29004KT 07/03 A3036 RMK A01 T00650030  RH  078%=      5-min Rain = 0
KCO1 100108Z 29004KT 06/03 A3036 RMK A01 T00640030  RH  078%=      5-min Rain = 0
KCO1 100109Z 29004KT 06/03 A3036 RMK A01 T00640030  RH  078%=      5-min Rain = 0
KCO1 100110Z 29005KT 06/03 A3036 RMK A01 T00640029  RH  079%=      5-min Rain = 0
KCO1 100111Z 29005KT 06/03 A3036 RMK A01 T00640029  RH  079%=      5-min Rain = 0
KCO1 100112Z 29005KT 06/03 A3036 RMK A01 T00630029  RH  079%=      5-min Rain = 0
KCO1 100113Z 28004KT 06/03 A3036 RMK A01 T00630029  RH  079%=      5-min Rain = 0
KCO1 100114Z 28005KT 06/03 A3036 RMK A01 T00620030  RH  079%=      5-min Rain = 0
KCO1 100115Z 27004KT 06/03 A3036 RMK A01 T00620029  RH  080%=      5-min Rain = 0
KCO1 100116Z 27004KT 06/03 A3036 RMK A01 T00610029  RH  080%=      5-min Rain = 0
KCO1 100117Z 27004KT 06/03 A3036 RMK A01 T00610030  RH  081%=      5-min Rain = 0
KCO1 100118Z 27004KT 06/03 A3036 RMK A01 T00600030  RH  081%=      5-min Rain = 0
KCO1 100119Z 27004KT 06/03 A3036 RMK A01 T00600030  RH  081%=      5-min Rain = 0
KCO1 100120Z 27004KT 06/03 A3036 RMK A01 T00600030  RH  081%=      5-min Rain = 0
KCO1 100121Z 28005KT 06/03 A3036 RMK A01 T00600030  RH  081%=      5-min Rain = 0
KCO1 100122Z 28005KT 06/03 A3036 RMK A01 T00590030  RH  081%=      5-min Rain = 0
KCO1 100123Z 28005KT 06/03 A3036 RMK A01 T00600031  RH  081%=      5-min Rain = 0
KCO1 100124Z 28005KT 06/03 A3036 RMK A01 T00600030  RH  081%=      5-min Rain = 0
KCO1 100125Z 28005KT 06/03 A3037 RMK A01 T00600031  RH  082%=      5-min Rain = 0
KCO1 100126Z 28005KT 06/03 A3037 RMK A01 T00600031  RH  082%=      5-min Rain = 0
KCO1 100127Z 28005KT 06/03 A3037 RMK A01 T00600031  RH  082%=      5-min Rain = 0
KCO1 100128Z 28005KT 06/03 A3037 RMK A01 T00600031  RH  082%=      5-min Rain = 0
KCO1 100129Z 28005KT 06/03 A3037 RMK A01 T00590030  RH  082%=      5-min Rain = 0
KCO1 100130Z 28005KT 06/03 A3037 RMK A01 T00590030  RH  082%=      5-min Rain = 0
KCO1 100131Z 28005KT 06/03 A3037 RMK A01 T00590031  RH  082%=      5-min Rain = 0
KCO1 100132Z 29005KT 06/03 A3037 RMK A01 T00590031  RH  082%=      5-min Rain = 0
KCO1 100133Z 29005KT 06/03 A3037 RMK A01 T00590030  RH  082%=      5-min Rain = 0
KCO1 100134Z 29005KT 06/03 A3037 RMK A01 T00580029  RH  082%=      5-min Rain = 0
KCO1 100135Z 29005KT 06/03 A3037 RMK A01 T00580029  RH  082%=      5-min Rain = 0
KCO1 100136Z 29005KT 06/03 A3037 RMK A01 T00570028  RH  082%=      5-min Rain = 0
KCO1 100137Z 29005KT 06/03 A3037 RMK A01 T00560028  RH  082%=      5-min Rain = 0
KCO1 100138Z 29006KT 06/03 A3037 RMK A01 T00550027  RH  082%=      5-min Rain = 0
KCO1 100139Z 29006KT 05/03 A3037 RMK A01 T00540026  RH  082%=      5-min Rain = 0
KCO1 100140Z 29006KT 05/03 A3037 RMK A01 T00530026  RH  083%=      5-min Rain = 0
KCO1 100141Z 29007KT 05/03 A3037 RMK A01 T00520025  RH  083%=      5-min Rain = 0
KCO1 100142Z 30007KT 05/03 A3037 RMK A01 T00510025  RH  083%=      5-min Rain = 0
KCO1 100143Z 30007KT 05/03 A3037 RMK A01 T00510026  RH  084%=      5-min Rain = 0
KCO1 100144Z 30006KT 05/03 A3038 RMK A01 T00510026  RH  084%=      5-min Rain = 0
KCO1 100145Z 30006KT 05/03 A3038 RMK A01 T00510026  RH  084%=      5-min Rain = 0
KCO1 100146Z 30006KT 05/03 A3038 RMK A01 T00510027  RH  085%=      5-min Rain = 0
KCO1 100147Z 30006KT 05/03 A3038 RMK A01 T00500027  RH  085%=      5-min Rain = 0
KCO1 100148Z 30006KT 05/03 A3038 RMK A01 T00500027  RH  085%=      5-min Rain = 0
KCO1 100149Z 30006KT 05/03 A3038 RMK A01 T00500027  RH  085%=      5-min Rain = 0
KCO1 100150Z 30006KT 05/03 A3038 RMK A01 T00490027  RH  086%=      5-min Rain = 0
KCO1 100151Z 30006KT 05/03 A3038 RMK A01 T00490027  RH  086%=      5-min Rain = 0
KCO1 100152Z 30006KT 05/03 A3038 RMK A01 T00490028  RH  086%=      5-min Rain = 0
KCO1 100153Z 30006KT 05/03 A3038 RMK A01 T00480028  RH  086%=      5-min Rain = 0
KCO1 100154Z 30006KT 05/03 A3038 RMK A01 T00480028  RH  087%=      5-min Rain = 0
KCO1 100155Z 30006KT 05/03 A3038 RMK A01 T00480028  RH  087%=      5-min Rain = 0
KCO1 100156Z 30006KT 05/03 A3038 RMK A01 T00470027  RH  087%=      5-min Rain = 0
KCO1 100157Z 30005KT 05/03 A3038 RMK A01 T00470027  RH  087%=      5-min Rain = 0
KCO1 100158Z 30006KT 05/03 A3038 RMK A01 T00470028  RH  088%=      5-min Rain = 0
KCO1 100159Z 30006KT 05/03 A3038 RMK A01 T00470028  RH  088%=      5-min Rain = 0
KCO1 100200Z 30006KT 05/03 A3038 RMK A01 T00470029  RH  088%=      5-min Rain = 0
KCO1 100201Z 30006KT 05/03 A3038 RMK A01 T00460028  RH  088%=      5-min Rain = 0
KCO1 100202Z 30006KT 05/03 A3038 RMK A01 T00460029  RH  089%=      5-min Rain = 0
KCO1 100203Z 30005KT 05/03 A3038 RMK A01 T00460029  RH  089%=      5-min Rain = 0
KCO1 100204Z 30005KT 05/03 A3038 RMK A01 T00460029  RH  089%=      5-min Rain = 0
KCO1 100205Z 30006KT 05/03 A3038 RMK A01 T00460030  RH  089%=      5-min Rain = 0
KCO1 100206Z 31005KT 05/03 A3038 RMK A01 T00460030  RH  090%=      5-min Rain = 0
KCO1 100207Z 31005KT 05/03 A3038 RMK A01 T00450030  RH  090%=      5-min Rain = 0
KCO1 100208Z 30005KT 05/03 A3038 RMK A01 T00450030  RH  090%=      5-min Rain = 0
KCO1 100209Z 31005KT 05/03 A3038 RMK A01 T00450030  RH  090%=      5-min Rain = 0
KCO1 100210Z 31005KT 05/03 A3038 RMK A01 T00450030  RH  090%=      5-min Rain = 0
KCO1 100211Z 31005KT 04/03 A3038 RMK A01 T00440030  RH  090%=      5-min Rain = 0
KCO1 100212Z 30006KT 04/03 A3038 RMK A01 T00440030  RH  090%=      5-min Rain = 0
KCO1 100213Z 30005KT 04/03 A3038 RMK A01 T00440029  RH  090%=      5-min Rain = 0
KCO1 100214Z 31005KT 04/03 A3038 RMK A01 T00440030  RH  091%=      5-min Rain = 0
KCO1 100215Z 31005KT 04/03 A3038 RMK A01 T00430030  RH  091%=      5-min Rain = 0
KCO1 100216Z 31005KT 04/03 A3038 RMK A01 T00430029  RH  091%=      5-min Rain = 0
KCO1 100217Z 31006KT 04/03 A3038 RMK A01 T00430029  RH  091%=      5-min Rain = 0
KCO1 100218Z 31005KT 04/03 A3038 RMK A01 T00430029  RH  091%=      5-min Rain = 0
KCO1 100219Z 31005KT 04/03 A3038 RMK A01 T00420029  RH  091%=      5-min Rain = 0
KCO1 100220Z 31005KT 04/03 A3038 RMK A01 T00420029  RH  091%=      5-min Rain = 0
KCO1 100221Z 31005KT 04/03 A3039 RMK A01 T00420029  RH  091%=      5-min Rain = 0
KCO1 100222Z 31005KT 04/03 A3039 RMK A01 T00420029  RH  091%=      5-min Rain = 0
KCO1 100223Z 31005KT 04/03 A3039 RMK A01 T00420029  RH  091%=      5-min Rain = 0
KCO1 100224Z 31005KT 04/03 A3039 RMK A01 T00410029  RH  091%=      5-min Rain = 0
KCO1 100225Z 31005KT 04/03 A3039 RMK A01 T00410029  RH  092%=      5-min Rain = 0
KCO1 100226Z 31005KT 04/03 A3039 RMK A01 T00410028  RH  092%=      5-min Rain = 0
KCO1 100227Z 31006KT 04/03 A3039 RMK A01 T00410028  RH  092%=      5-min Rain = 0
KCO1 100228Z 30006KT 04/03 A3039 RMK A01 T00400028  RH  092%=      5-min Rain = 0
KCO1 100229Z 31005KT 04/03 A3039 RMK A01 T00400028  RH  092%=      5-min Rain = 0
KCO1 100230Z 30006KT 04/03 A3039 RMK A01 T00400027  RH  092%=      5-min Rain = 0
KCO1 100231Z 31005KT 04/03 A3039 RMK A01 T00400027  RH  092%=      5-min Rain = 0
KCO1 100232Z 31005KT 04/03 A3039 RMK A01 T00400028  RH  092%=      5-min Rain = 0
KCO1 100233Z 31005KT 04/03 A3039 RMK A01 T00400027  RH  092%=      5-min Rain = 0
KCO1 100234Z 30004KT 04/03 A3039 RMK A01 T00390027  RH  092%=      5-min Rain = 0
KCO1 100235Z 30005KT 04/03 A3039 RMK A01 T00390027  RH  092%=      5-min Rain = 0
KCO1 100236Z 30005KT 04/03 A3039 RMK A01 T00380026  RH  092%=      5-min Rain = 0
KCO1 100237Z 30004KT 04/03 A3039 RMK A01 T00380026  RH  092%=      5-min Rain = 0
KCO1 100238Z 29004KT 04/03 A3039 RMK A01 T00380027  RH  092%=      5-min Rain = 0
KCO1 100239Z 29004KT 04/03 A3039 RMK A01 T00380026  RH  092%=      5-min Rain = 0
KCO1 100240Z 29004KT 04/03 A3039 RMK A01 T00380026  RH  092%=      5-min Rain = 0
KCO1 100241Z 29004KT 04/03 A3039 RMK A01 T00370026  RH  092%=      5-min Rain = 0
KCO1 100242Z 29005KT 04/03 A3039 RMK A01 T00370026  RH  092%=      5-min Rain = 0
KCO1 100243Z 29004KT 04/03 A3039 RMK A01 T00360025  RH  092%=      5-min Rain = 0
KCO1 100244Z 30005KT 04/03 A3039 RMK A01 T00360025  RH  092%=      5-min Rain = 0
KCO1 100245Z 30004KT 04/03 A3039 RMK A01 T00360025  RH  093%=      5-min Rain = 0
KCO1 100246Z 30005KT 04/03 A3039 RMK A01 T00360025  RH  093%=      5-min Rain = 0
KCO1 100247Z 30004KT 04/03 A3039 RMK A01 T00360025  RH  093%=      5-min Rain = 0
KCO1 100248Z 30005KT 04/02 A3039 RMK A01 T00350024  RH  093%=      5-min Rain = 0
KCO1 100249Z 30004KT 04/02 A3039 RMK A01 T00350024  RH  093%=      5-min Rain = 0
KCO1 100250Z 29004KT 04/02 A3039 RMK A01 T00350024  RH  093%=      5-min Rain = 0
KCO1 100251Z 29005KT 03/02 A3039 RMK A01 T00340023  RH  093%=      5-min Rain = 0
KCO1 100252Z 29004KT 03/02 A3039 RMK A01 T00340023  RH  093%=      5-min Rain = 0
KCO1 100253Z 29004KT 03/02 A3039 RMK A01 T00330023  RH  093%=      5-min Rain = 0
KCO1 100254Z 29005KT 03/02 A3039 RMK A01 T00330023  RH  093%=      5-min Rain = 0
KCO1 100255Z 30004KT 03/02 A3039 RMK A01 T00320022  RH  093%=      5-min Rain = 0
KCO1 100256Z 29005KT 03/02 A3039 RMK A01 T00320022  RH  093%=      5-min Rain = 0
KCO1 100257Z 30005KT 03/02 A3039 RMK A01 T00320023  RH  093%=      5-min Rain = 0
KCO1 100258Z 30005KT 03/02 A3039 RMK A01 T00320023  RH  093%=      5-min Rain = 0
KCO1 100259Z 30005KT 03/02 A3039 RMK A01 T00320023  RH  094%=      5-min Rain = 0
KCO1 100300Z 30004KT 03/02 A3039 RMK A01 T00320022  RH  094%=      5-min Rain = 0
KCO1 100301Z 30004KT 03/02 A3039 RMK A01 T00320022  RH  094%=      5-min Rain = 0
KCO1 100302Z 30004KT 03/02 A3039 RMK A01 T00310022  RH  094%=      5-min Rain = 0
KCO1 100303Z 30004KT 03/02 A3039 RMK A01 T00310022  RH  094%=      5-min Rain = 0
KCO1 100304Z 30004KT 03/02 A3039 RMK A01 T00310021  RH  094%=      5-min Rain = 0
KCO1 100305Z 30004KT 03/02 A304 RMK A01 T00300021  RH  094%=      5-min Rain = 0
KCO1 100306Z 30004KT 03/02 A304 RMK A01 T00300021  RH  094%=      5-min Rain = 0
KCO1 100307Z 30004KT 03/02 A304 RMK A01 T00300021  RH  094%=      5-min Rain = 0
KCO1 100308Z 30004KT 03/02 A304 RMK A01 T00290020  RH  094%=      5-min Rain = 0
KCO1 100309Z 30004KT 03/02 A304 RMK A01 T00290020  RH  094%=      5-min Rain = 0
KCO1 100310Z 29004KT 03/02 A304 RMK A01 T00280019  RH  094%=      5-min Rain = 0
KCO1 100311Z 29005KT 03/02 A304 RMK A01 T00280019  RH  094%=      5-min Rain = 0
KCO1 100312Z 29005KT 03/02 A304 RMK A01 T00280019  RH  094%=      5-min Rain = 0
KCO1 100313Z 29005KT 03/02 A304 RMK A01 T00280019  RH  094%=      5-min Rain = 0
KCO1 100314Z 29005KT 03/02 A304 RMK A01 T00280020  RH  094%=      5-min Rain = 0
KCO1 100315Z 29004KT 03/02 A304 RMK A01 T00280020  RH  095%=      5-min Rain = 0
KCO1 100316Z 30005KT 03/02 A304 RMK A01 T00270020  RH  095%=      5-min Rain = 0
KCO1 100317Z 30005KT 03/02 A304 RMK A01 T00270019  RH  095%=      5-min Rain = 0
KCO1 100318Z 30005KT 03/02 A304 RMK A01 T00270019  RH  095%=      5-min Rain = 0
KCO1 100319Z 30005KT 03/02 A304 RMK A01 T00260019  RH  095%=      5-min Rain = 0
KCO1 100320Z 30004KT 03/02 A304 RMK A01 T00270019  RH  095%=      5-min Rain = 0
KCO1 100321Z 30004KT 03/02 A304 RMK A01 T00260019  RH  095%=      5-min Rain = 0
KCO1 100322Z 30004KT 03/02 A304 RMK A01 T00260019  RH  095%=      5-min Rain = 0
KCO1 100323Z 29004KT 03/02 A304 RMK A01 T00260018  RH  095%=      5-min Rain = 0
KCO1 100324Z 30004KT 03/02 A304 RMK A01 T00260019  RH  095%=      5-min Rain = 0
KCO1 100325Z 30004KT 03/02 A304 RMK A01 T00260018  RH  095%=      5-min Rain = 0
KCO1 100326Z 30004KT 03/02 A304 RMK A01 T00250018  RH  095%=      5-min Rain = 0
KCO1 100327Z 29004KT 03/02 A304 RMK A01 T00250017  RH  095%=      5-min Rain = 0
KCO1 100328Z 29004KT 03/02 A304 RMK A01 T00250018  RH  095%=      5-min Rain = 0
KCO1 100329Z 29004KT 03/02 A304 RMK A01 T00250018  RH  095%=      5-min Rain = 0
KCO1 100330Z 29005KT 02/02 A304 RMK A01 T00240017  RH  095%=      5-min Rain = 0
KCO1 100331Z 29004KT 02/02 A304 RMK A01 T00240017  RH  095%=      5-min Rain = 0
KCO1 100332Z 29004KT 03/02 A304 RMK A01 T00250018  RH  095%=      5-min Rain = 0
KCO1 100333Z 29004KT 02/02 A304 RMK A01 T00240017  RH  095%=      5-min Rain = 0
KCO1 100334Z 29004KT 02/02 A304 RMK A01 T00240017  RH  095%=      5-min Rain = 0
KCO1 100335Z 29004KT 02/02 A304 RMK A01 T00240018  RH  095%=      5-min Rain = 0
KCO1 100336Z 29004KT 02/02 A304 RMK A01 T00240017  RH  095%=      5-min Rain = 0
KCO1 100337Z 29004KT 02/02 A304 RMK A01 T00240017  RH  095%=      5-min Rain = 0
KCO1 100338Z 29004KT 02/02 A304 RMK A01 T00240017  RH  095%=      5-min Rain = 0
KCO1 100339Z 29005KT 02/02 A304 RMK A01 T00230017  RH  095%=      5-min Rain = 0
KCO1 100340Z 29004KT 02/02 A304 RMK A01 T00230016  RH  095%=      5-min Rain = 0
KCO1 100341Z 29004KT 02/02 A304 RMK A01 T00230017  RH  095%=      5-min Rain = 0
KCO1 100342Z 28004KT 02/02 A304 RMK A01 T00230016  RH  095%=      5-min Rain = 0
KCO1 100343Z 29004KT 02/02 A304 RMK A01 T00230017  RH  096%=      5-min Rain = 0
KCO1 100344Z 29005KT 02/02 A304 RMK A01 T00230017  RH  096%=      5-min Rain = 0
KCO1 100345Z 29005KT 02/02 A304 RMK A01 T00230017  RH  096%=      5-min Rain = 0
KCO1 100346Z 29004KT 02/02 A304 RMK A01 T00230017  RH  096%=      5-min Rain = 0
KCO1 100347Z 29004KT 02/02 A304 RMK A01 T00230017  RH  096%=      5-min Rain = 0
KCO1 100348Z 29004KT 02/02 A304 RMK A01 T00230016  RH  096%=      5-min Rain = 0
KCO1 100349Z 29004KT 02/02 A304 RMK A01 T00230016  RH  096%=      5-min Rain = 0
KCO1 100350Z 29004KT 02/02 A304 RMK A01 T00230016  RH  096%=      5-min Rain = 0
KCO1 100351Z 29004KT 02/02 A304 RMK A01 T00220016  RH  096%=      5-min Rain = 0
KCO1 100352Z 29004KT 02/02 A304 RMK A01 T00220016  RH  096%=      5-min Rain = 0
KCO1 100353Z 29004KT 02/02 A304 RMK A01 T00220016  RH  096%=      5-min Rain = 0
KCO1 100354Z 29004KT 02/02 A304 RMK A01 T00220015  RH  096%=      5-min Rain = 0
KCO1 100355Z 29004KT 02/02 A304 RMK A01 T00210015  RH  096%=      5-min Rain = 0
KCO1 100356Z 28004KT 02/02 A304 RMK A01 T00210015  RH  096%=      5-min Rain = 0
KCO1 100357Z 28004KT 02/01 A304 RMK A01 T00210014  RH  096%=      5-min Rain = 0
KCO1 100358Z 28004KT 02/02 A304 RMK A01 T00210015  RH  096%=      5-min Rain = 0
KCO1 100359Z 28004KT 02/02 A304 RMK A01 T00210015  RH  096%=      5-min Rain = 0
KCO1 100400Z 28004KT 02/02 A304 RMK A01 T00210015  RH  096%=      5-min Rain = 0
KCO1 100401Z 28005KT 02/02 A304 RMK A01 T00210015  RH  096%=      5-min Rain = 0
KCO1 100402Z 28005KT 02/02 A304 RMK A01 T00210015  RH  096%=      5-min Rain = 0
KCO1 100403Z 29005KT 02/02 A304 RMK A01 T00210015  RH  096%=      5-min Rain = 0
KCO1 100404Z 28005KT 02/02 A304 RMK A01 T00210015  RH  096%=      5-min Rain = 0
KCO1 100405Z 28005KT 02/01 A304 RMK A01 T00200014  RH  096%=      5-min Rain = 0
KCO1 100406Z 28004KT 02/01 A304 RMK A01 T00200014  RH  096%=      5-min Rain = 0
KCO1 100407Z 27004KT 02/01 A304 RMK A01 T00200014  RH  096%=      5-min Rain = 0
KCO1 100408Z 28004KT 02/01 A304 RMK A01 T00200014  RH  096%=      5-min Rain = 0
KCO1 100409Z 28004KT 02/01 A304 RMK A01 T00200014  RH  096%=      5-min Rain = 0
KCO1 100410Z 28004KT 02/01 A304 RMK A01 T00200014  RH  096%=      5-min Rain = 0
KCO1 100411Z 28004KT 02/01 A304 RMK A01 T00200014  RH  096%=      5-min Rain = 0
KCO1 100412Z 28003KT 02/01 A304 RMK A01 T00200014  RH  096%=      5-min Rain = 0
KCO1 100413Z 28003KT 02/01 A3041 RMK A01 T00200014  RH  096%=      5-min Rain = 0
KCO1 100414Z 28003KT 02/01 A3041 RMK A01 T00200014  RH  096%=      5-min Rain = 0
KCO1 100415Z 29003KT 02/01 A3041 RMK A01 T00200014  RH  096%=      5-min Rain = 0
KCO1 100416Z 29002KT 02/01 A3041 RMK A01 T00200014  RH  096%=      5-min Rain = 0
KCO1 100417Z 29002KT 02/01 A3041 RMK A01 T00200014  RH  096%=      5-min Rain = 0
KCO1 100418Z 29002KT 02/01 A3041 RMK A01 T00200014  RH  096%=      5-min Rain = 0
KCO1 100419Z 30002KT 02/01 A3041 RMK A01 T00200014  RH  096%=      5-min Rain = 0
KCO1 100420Z 30002KT 02/01 A3041 RMK A01 T00200014  RH  096%=      5-min Rain = 0
KCO1 100421Z 31002KT 02/01 A3041 RMK A01 T00200014  RH  096%=      5-min Rain = 0
KCO1 100422Z 32002KT 02/01 A3041 RMK A01 T00200014  RH  096%=      5-min Rain = 0
KCO1 100423Z 32002KT 02/01 A3041 RMK A01 T00200014  RH  096%=      5-min Rain = 0
KCO1 100424Z 31002KT 02/01 A3041 RMK A01 T00200014  RH  096%=      5-min Rain = 0
KCO1 100425Z 31002KT 02/01 A3041 RMK A01 T00190014  RH  096%=      5-min Rain = 0
KCO1 100426Z 31003KT 02/01 A3041 RMK A01 T00190014  RH  096%=      5-min Rain = 0
KCO1 100427Z 31004KT 02/01 A3041 RMK A01 T00200014  RH  096%=      5-min Rain = 0
KCO1 100428Z 31004KT 02/01 A3041 RMK A01 T00190014  RH  096%=      5-min Rain = 0
KCO1 100429Z 31004KT 02/02 A3041 RMK A01 T00200015  RH  096%=      5-min Rain = 0
KCO1 100430Z 32003KT 02/02 A3041 RMK A01 T00210015  RH  096%=      5-min Rain = 0
KCO1 100431Z 32003KT 02/02 A3041 RMK A01 T00210016  RH  096%=      5-min Rain = 0
KCO1 100432Z 33003KT 02/02 A3041 RMK A01 T00210016  RH  096%=      5-min Rain = 0
KCO1 100433Z 33003KT 02/02 A3041 RMK A01 T00210015  RH  096%=      5-min Rain = 0
KCO1 100434Z 33003KT 02/02 A3041 RMK A01 T00200015  RH  096%=      5-min Rain = 0
KCO1 100435Z 33003KT 02/01 A3041 RMK A01 T00200014  RH  096%=      5-min Rain = 0
KCO1 100436Z 33002KT 02/01 A3041 RMK A01 T00190013  RH  096%=      5-min Rain = 0
KCO1 100437Z 34002KT 02/01 A3041 RMK A01 T00190013  RH  096%=      5-min Rain = 0
KCO1 100438Z 34002KT 02/01 A3041 RMK A01 T00190013  RH  096%=      5-min Rain = 0
KCO1 100439Z 33002KT 02/01 A3041 RMK A01 T00180012  RH  096%=      5-min Rain = 0
KCO1 100440Z 32003KT 02/01 A3041 RMK A01 T00180012  RH  096%=      5-min Rain = 0
KCO1 100441Z 32003KT 02/01 A3041 RMK A01 T00170011  RH  096%=      5-min Rain = 0
KCO1 100442Z 33003KT 02/01 A3041 RMK A01 T00170011  RH  096%=      5-min Rain = 0
KCO1 100443Z 33003KT 02/01 A3041 RMK A01 T00170011  RH  096%=      5-min Rain = 0
KCO1 100444Z 32003KT 02/01 A3041 RMK A01 T00170011  RH  096%=      5-min Rain = 0
KCO1 100445Z 32003KT 02/01 A3041 RMK A01 T00170011  RH  096%=      5-min Rain = 0
KCO1 100446Z 32003KT 02/01 A3041 RMK A01 T00170012  RH  096%=      5-min Rain = 0
KCO1 100447Z 32004KT 02/01 A3041 RMK A01 T00180013  RH  096%=      5-min Rain = 0
KCO1 100448Z 32004KT 02/01 A3041 RMK A01 T00190014  RH  096%=      5-min Rain = 0
KCO1 100449Z 32004KT 02/01 A3041 RMK A01 T00190013  RH  096%=      5-min Rain = 0
KCO1 100450Z 32004KT 02/01 A3041 RMK A01 T00180013  RH  096%=      5-min Rain = 0
KCO1 100451Z 32004KT 02/01 A3041 RMK A01 T00180012  RH  096%=      5-min Rain = 0
KCO1 100452Z 32004KT 02/01 A3041 RMK A01 T00170011  RH  096%=      5-min Rain = 0
KCO1 100453Z 32004KT 02/01 A3041 RMK A01 T00160011  RH  096%=      5-min Rain = 0
KCO1 100454Z 32004KT 02/01 A3041 RMK A01 T00160011  RH  096%=      5-min Rain = 0
KCO1 100455Z 31004KT 02/01 A3041 RMK A01 T00160010  RH  096%=      5-min Rain = 0
KCO1 100456Z 31004KT 02/01 A3041 RMK A01 T00150010  RH  096%=      5-min Rain = 0
KCO1 100457Z 30003KT 02/01 A3041 RMK A01 T00150009  RH  096%=      5-min Rain = 0
KCO1 100458Z 30003KT 01/01 A3041 RMK A01 T00140009  RH  096%=      5-min Rain = 0
KCO1 100459Z 30003KT 01/01 A3041 RMK A01 T00140008  RH  096%=      5-min Rain = 0
KCO1 100500Z 30003KT 01/01 A3041 RMK A01 T00130008  RH  096%=      5-min Rain = 0
KCO1 100501Z 30003KT 01/01 A3041 RMK A01 T00130007  RH  096%=      5-min Rain = 0
KCO1 100502Z 30003KT 01/01 A3041 RMK A01 T00120006  RH  096%=      5-min Rain = 0
KCO1 100503Z 30003KT 01/01 A3041 RMK A01 T00120006  RH  096%=      5-min Rain = 0
KCO1 100504Z 30003KT 01/01 A3041 RMK A01 T00120007  RH  096%=      5-min Rain = 0
KCO1 100505Z 30004KT 01/01 A3041 RMK A01 T00120006  RH  096%=      5-min Rain = 0
KCO1 100506Z 30004KT 01/01 A3041 RMK A01 T00120007  RH  096%=      5-min Rain = 0
KCO1 100507Z 30004KT 01/01 A3041 RMK A01 T00120007  RH  097%=      5-min Rain = 0
KCO1 100508Z 30004KT 01/01 A3041 RMK A01 T00120007  RH  097%=      5-min Rain = 0
KCO1 100509Z 30004KT 01/01 A3041 RMK A01 T00120007  RH  097%=      5-min Rain = 0
KCO1 100510Z 30004KT 01/01 A3041 RMK A01 T00120007  RH  097%=      5-min Rain = 0
KCO1 100511Z 30003KT 01/01 A3041 RMK A01 T00120008  RH  097%=      5-min Rain = 0
KCO1 100512Z 29003KT 01/01 A3041 RMK A01 T00130008  RH  097%=      5-min Rain = 0
KCO1 100513Z 29004KT 01/01 A3041 RMK A01 T00130008  RH  097%=      5-min Rain = 0
KCO1 100514Z 29004KT 01/01 A3041 RMK A01 T00130008  RH  097%=      5-min Rain = 0
KCO1 100515Z 29004KT 01/01 A3041 RMK A01 T00120008  RH  097%=      5-min Rain = 0
KCO1 100516Z 28004KT 01/01 A3041 RMK A01 T00120007  RH  097%=      5-min Rain = 0
KCO1 100517Z 28004KT 01/01 A3041 RMK A01 T00110007  RH  097%=      5-min Rain = 0
KCO1 100518Z 28004KT 01/01 A3041 RMK A01 T00110007  RH  097%=      5-min Rain = 0
KCO1 100519Z 28004KT 01/01 A3041 RMK A01 T00120007  RH  097%=      5-min Rain = 0
KCO1 100520Z 28004KT 01/01 A3041 RMK A01 T00120008  RH  097%=      5-min Rain = 0
KCO1 100521Z 27004KT 01/01 A3041 RMK A01 T00120008  RH  097%=      5-min Rain = 0
KCO1 100522Z 27004KT 01/01 A3041 RMK A01 T00120007  RH  097%=      5-min Rain = 0
KCO1 100523Z 26005KT 01/01 A3041 RMK A01 T00120008  RH  097%=      5-min Rain = 0
KCO1 100524Z 26005KT 01/01 A3041 RMK A01 T00130009  RH  097%=      5-min Rain = 0
KCO1 100525Z 26004KT 01/01 A3041 RMK A01 T00130008  RH  097%=      5-min Rain = 0
KCO1 100526Z 26004KT 01/01 A3041 RMK A01 T00120008  RH  097%=      5-min Rain = 0
KCO1 100527Z 26004KT 01/01 A3041 RMK A01 T00120007  RH  097%=      5-min Rain = 0
KCO1 100528Z 26004KT 01/01 A3041 RMK A01 T00120008  RH  097%=      5-min Rain = 0
KCO1 100529Z 26004KT 01/01 A3041 RMK A01 T00120007  RH  097%=      5-min Rain = 0
KCO1 100530Z 26003KT 01/01 A3041 RMK A01 T00120008  RH  097%=      5-min Rain = 0
KCO1 100531Z 26004KT 01/01 A3041 RMK A01 T00110007  RH  097%=      5-min Rain = 0
KCO1 100532Z 26004KT 01/01 A3041 RMK A01 T00110007  RH  097%=      5-min Rain = 0
KCO1 100533Z 27004KT 01/01 A3041 RMK A01 T00110007  RH  097%=      5-min Rain = 0
KCO1 100534Z 27004KT 01/01 A3041 RMK A01 T00110007  RH  097%=      5-min Rain = 0
KCO1 100535Z 27004KT 01/01 A3041 RMK A01 T00120008  RH  097%=      5-min Rain = 0
KCO1 100536Z 27004KT 01/01 A3041 RMK A01 T00120008  RH  097%=      5-min Rain = 0
KCO1 100537Z 26004KT 01/01 A3041 RMK A01 T00130009  RH  097%=      5-min Rain = 0
KCO1 100538Z 25005KT 01/01 A3041 RMK A01 T00130010  RH  097%=      5-min Rain = 0
KCO1 100539Z 24004KT 01/01 A3041 RMK A01 T00130009  RH  097%=      5-min Rain = 0
KCO1 100540Z 23004KT 01/01 A3041 RMK A01 T00130008  RH  097%=      5-min Rain = 0
KCO1 100541Z 24004KT 01/01 A3041 RMK A01 T00130009  RH  097%=      5-min Rain = 0
KCO1 100542Z 23005KT 01/01 A3041 RMK A01 T00130008  RH  097%=      5-min Rain = 0
KCO1 100543Z 23006KT 01/01 A3041 RMK A01 T00130009  RH  097%=      5-min Rain = 0
KCO1 100544Z 23007KT 01/01 A3041 RMK A01 T00130009  RH  097%=      5-min Rain = 0
KCO1 100545Z 22007KT 01/01 A3041 RMK A01 T00130009  RH  097%=      5-min Rain = 0
KCO1 100546Z 22007KT 01/01 A3041 RMK A01 T00120008  RH  097%=      5-min Rain = 0
KCO1 100547Z 22006KT 01/01 A3041 RMK A01 T00100005  RH  097%=      5-min Rain = 0
KCO1 100548Z 22007KT 01/00 A304 RMK A01 T00090004  RH  097%=      5-min Rain = 0
KCO1 100549Z 22006KT 01/00 A3041 RMK A01 T00080003  RH  096%=      5-min Rain = 0
KCO1 100550Z 22005KT 01/00 A3041 RMK A01 T00080003  RH  097%=      5-min Rain = 0
KCO1 100551Z 22005KT 01/00 A3041 RMK A01 T00080003  RH  097%=      5-min Rain = 0
KCO1 100552Z 22005KT 01/00 A3041 RMK A01 T00070003  RH  097%=      5-min Rain = 0
KCO1 100553Z 22005KT 01/00 A304 RMK A01 T00070003  RH  097%=      5-min Rain = 0
KCO1 100554Z 22005KT 01/00 A304 RMK A01 T00070002  RH  097%=      5-min Rain = 0
KCO1 100555Z 22005KT 01/00 A304 RMK A01 T00070002  RH  097%=      5-min Rain = 0
KCO1 100556Z 22006KT 01/00 A304 RMK A01 T00070002  RH  097%=      5-min Rain = 0
KCO1 100557Z 22006KT 01/00 A304 RMK A01 T00070003  RH  097%=      5-min Rain = 0
KCO1 100558Z 22006KT 01/00 A304 RMK A01 T00070003  RH  097%=      5-min Rain = 0
KCO1 100559Z 22005KT 01/00 A304 RMK A01 T00070003  RH  097%=      5-min Rain = 0

Page generated in 0.1412 seconds.